| time (UTC) | temp F | wind direction | speed MPH | gust MPH | rain 1hr in | rain 24hr in | rain mn in | humidity % | barometer mb |
| 20260505022227 | 47 | 20 | 0.0 | 1.0 | 0.00 | 0.06 | 0.00 | 90 | 1008.2 |
| 20260505022126 | 47 | 20 | 0.0 | 1.0 | 0.00 | 0.06 | 0.00 | 91 | 1008.2 |
| 20260505022027 | 47 | 20 | 0.0 | 2.0 | 0.00 | 0.06 | 0.00 | 91 | 1008.2 |
| 20260505021927 | 47 | 20 | 0.0 | 2.0 | 0.00 | 0.06 | 0.00 | 91 | 1008.2 |
| 20260505021831 | 48 | 20 | 0.0 | 2.0 | 0.00 | 0.06 | 0.00 | 91 | 1008.2 |
| 20260505021726 | 48 | 20 | 1.0 | 2.0 | 0.00 | 0.06 | 0.00 | 91 | 1008.3 |
| 20260505021626 | 47 | 20 | 1.0 | 2.0 | 0.00 | 0.06 | 0.00 | 92 | 1008.3 |
| 20260505021526 | 48 | 20 | 1.0 | 2.0 | 0.00 | 0.06 | 0.00 | 92 | 1008.3 |
| 20260505021426 | 48 | 20 | 1.0 | 2.0 | 0.00 | 0.06 | 0.00 | 92 | 1008.4 |
| 20260505021327 | 48 | 20 | 1.0 | 2.0 | 0.00 | 0.06 | 0.00 | 92 | 1008.4 |
| 20260505021227 | 48 | 20 | 1.0 | 2.0 | 0.00 | 0.06 | 0.00 | 92 | 1008.4 |
| 20260505021126 | 48 | 20 | 1.0 | 2.0 | 0.00 | 0.06 | 0.00 | 92 | 1008.4 |
| 20260505021026 | 48 | 20 | 1.0 | 2.0 | 0.00 | 0.06 | 0.00 | 92 | 1008.4 |
| 20260505020926 | 48 | 20 | 1.0 | 2.0 | 0.00 | 0.06 | 0.00 | 92 | 1008.4 |
| 20260505020822 | 48 | 20 | 1.0 | 2.0 | 0.00 | 0.06 | 0.00 | 92 | 1008.6 |
| 20260505020723 | 48 | 20 | 1.0 | 2.0 | 0.00 | 0.06 | 0.00 | 92 | 1008.4 |
| 20260505020623 | 48 | 20 | 1.0 | 2.0 | 0.00 | 0.06 | 0.00 | 92 | 1008.6 |
| 20260505020522 | 48 | 20 | 1.0 | 2.0 | 0.00 | 0.06 | 0.00 | 92 | 1008.6 |
| 20260505020422 | 48 | 20 | 1.0 | 2.0 | 0.00 | 0.06 | 0.00 | 92 | 1008.6 |
| 20260505020322 | 48 | 20 | 1.0 | 2.0 | 0.00 | 0.06 | 0.00 | 92 | 1008.6 |
| 20260505020223 | 48 | 20 | 1.0 | 2.0 | 0.00 | 0.06 | 0.00 | 92 | 1008.6 |
| 20260505020122 | 48 | 20 | 1.0 | 2.0 | 0.00 | 0.06 | 0.00 | 92 | 1008.6 |
| 20260505020022 | 48 | 20 | 1.0 | 2.0 | 0.00 | 0.06 | 0.00 | 92 | 1008.6 |
| 20260505015920 | 48 | 20 | 1.0 | 2.0 | 0.00 | 0.06 | 0.00 | 92 | 1008.6 |
| 20260505015818 | 48 | 20 | 1.0 | 2.0 | 0.00 | 0.06 | 0.00 | 91 | 1008.6 |
| 20260505015718 | 48 | 20 | 1.0 | 2.0 | 0.00 | 0.06 | 0.00 | 91 | 1008.6 |
| 20260505015617 | 48 | 20 | 1.0 | 3.0 | 0.00 | 0.06 | 0.00 | 91 | 1008.4 |
| 20260505015516 | 48 | 20 | 1.0 | 3.0 | 0.00 | 0.06 | 0.00 | 91 | 1008.4 |
| 20260505015412 | 48 | 20 | 1.0 | 3.0 | 0.00 | 0.06 | 0.00 | 91 | 1008.4 |
| 20260505015311 | 48 | 20 | 1.0 | 3.0 | 0.00 | 0.06 | 0.00 | 91 | 1008.6 |
| 20260505015208 | 48 | 20 | 1.0 | 3.0 | 0.00 | 0.06 | 0.00 | 91 | 1008.6 |
| 20260505015108 | 48 | 20 | 1.0 | 3.0 | 0.00 | 0.06 | 0.00 | 91 | 1008.4 |
| 20260505015006 | 48 | 20 | 1.0 | 3.0 | 0.00 | 0.06 | 0.00 | 91 | 1008.6 |
| 20260505014906 | 48 | 20 | 1.0 | 3.0 | 0.00 | 0.06 | 0.00 | 91 | 1008.6 |
| 20260505014804 | 48 | 20 | 1.0 | 3.0 | 0.00 | 0.06 | 0.00 | 91 | 1008.6 |
| 20260505014702 | 48 | 43 | 1.0 | 3.0 | 0.00 | 0.06 | 0.00 | 91 | 1008.4 |
| 20260505014602 | 48 | 51 | 1.0 | 2.0 | 0.00 | 0.06 | 0.00 | 91 | 1008.6 |
| 20260505014531 | 48 | 107 | 0.0 | 2.0 | 0.00 | 0.06 | 0.00 | 91 | 1008.6 |
| 20260505014501 | 48 | 108 | 0.0 | 2.0 | 0.00 | 0.06 | 0.00 | 91 | 1008.6 |
| 20260505014402 | 48 | 108 | 0.0 | 2.0 | 0.00 | 0.06 | 0.00 | 91 | 1008.6 |
| 20260505014303 | 48 | 108 | 0.0 | 1.0 | 0.00 | 0.06 | 0.00 | 91 | 1008.6 |
| 20260505014258 | 48 | 108 | 0.0 | 1.0 | 0.00 | 0.06 | 0.00 | 91 | 1008.6 |
| 20260505014245 | 48 | 108 | 0.0 | 1.0 | 0.00 | 0.06 | 0.00 | 91 | 1008.6 |
| 20260505014241 | 48 | 108 | 0.0 | 1.0 | 0.00 | 0.06 | 0.00 | 91 | 1008.6 |
| 20260505014001 | 48 | 108 | 0.0 | 1.0 | 0.00 | 0.06 | 0.00 | 91 | 1008.6 |
| 20260505013901 | 48 | 108 | 0.0 | 1.0 | 0.00 | 0.06 | 0.00 | 91 | 1008.7 |
| 20260505013801 | 48 | 108 | 0.0 | 1.0 | 0.00 | 0.06 | 0.00 | 90 | 1008.6 |
| 20260505013701 | 48 | 108 | 0.0 | 1.0 | 0.00 | 0.06 | 0.00 | 90 | 1008.6 |
| 20260505013601 | 48 | 108 | 0.0 | 1.0 | 0.00 | 0.06 | 0.00 | 90 | 1008.4 |
| 20260505013501 | 48 | 108 | 0.0 | 0.0 | 0.00 | 0.06 | 0.00 | 90 | 1008.6 |
| 20260505013401 | 48 | 108 | 0.0 | 0.0 | 0.00 | 0.06 | 0.00 | 90 | 1008.4 |
| 20260505013301 | 48 | 108 | 0.0 | 0.0 | 0.00 | 0.06 | 0.00 | 90 | 1008.4 |
| 20260505013201 | 48 | 108 | 0.0 | 0.0 | 0.00 | 0.06 | 0.00 | 90 | 1008.4 |
| 20260505013101 | 48 | 108 | 0.0 | 0.0 | 0.00 | 0.06 | 0.00 | 90 | 1008.4 |
| 20260505013030 | 48 | 108 | 0.0 | 0.0 | 0.00 | 0.06 | 0.00 | 90 | 1008.4 |
| 20260505013001 | 49 | 109 | 0.0 | 0.0 | 0.00 | 0.06 | 0.00 | 90 | 1008.4 |
| 20260505012901 | 49 | 108 | 0.0 | 0.0 | 0.00 | 0.06 | 0.00 | 90 | 1008.6 |
| 20260505012801 | 49 | 108 | 0.0 | 0.0 | 0.00 | 0.06 | 0.00 | 90 | 1008.6 |
| 20260505012701 | 49 | 108 | 0.0 | 0.0 | 0.00 | 0.06 | 0.00 | 90 | 1008.4 |
| 20260505012601 | 49 | 108 | 0.0 | 0.0 | 0.00 | 0.06 | 0.00 | 90 | 1008.6 |
| 20260505012529 | 49 | 108 | 0.0 | 0.0 | 0.00 | 0.06 | 0.00 | 90 | 1008.6 |
| 20260505012500 | 49 | 108 | 0.0 | 1.0 | 0.00 | 0.06 | 0.00 | 90 | 1008.6 |
| 20260505012400 | 49 | 108 | 0.0 | 1.0 | 0.00 | 0.06 | 0.00 | 90 | 1008.6 |
| 20260505012258 | 49 | 108 | 0.0 | 1.0 | 0.00 | 0.06 | 0.00 | 90 | 1008.4 |
| 20260505012203 | 49 | 108 | 0.0 | 1.0 | 0.00 | 0.06 | 0.00 | 90 | 1008.6 |
| 20260505012029 | 49 | 108 | 0.0 | 1.0 | 0.00 | 0.06 | 0.00 | 90 | 1008.6 |
| 20260505011957 | 49 | 108 | 0.0 | 1.0 | 0.00 | 0.06 | 0.00 | 90 | 1008.7 |
| 20260505011852 | 49 | 108 | 0.0 | 1.0 | 0.00 | 0.06 | 0.00 | 90 | 1008.6 |
| 20260505011752 | 49 | 108 | 0.0 | 1.0 | 0.00 | 0.06 | 0.00 | 90 | 1008.6 |
| 20260505011652 | 49 | 108 | 0.0 | 1.0 | 0.00 | 0.06 | 0.00 | 90 | 1008.6 |
| 20260505011552 | 49 | 108 | 0.0 | 1.0 | 0.00 | 0.06 | 0.00 | 90 | 1008.7 |
| 20260505011529 | 49 | 108 | 0.0 | 1.0 | 0.00 | 0.06 | 0.00 | 91 | 1008.7 |
| 20260505011452 | 49 | 108 | 0.0 | 1.0 | 0.00 | 0.06 | 0.00 | 90 | 1008.6 |
| 20260505011352 | 49 | 108 | 0.0 | 0.0 | 0.00 | 0.06 | 0.00 | 91 | 1008.6 |
| 20260505011252 | 49 | 108 | 0.0 | 0.0 | 0.00 | 0.06 | 0.00 | 91 | 1008.7 |
| 20260505011152 | 49 | 108 | 0.0 | 0.0 | 0.00 | 0.06 | 0.00 | 91 | 1008.6 |
| 20260505011031 | 49 | 108 | 0.0 | 0.0 | 0.00 | 0.06 | 0.00 | 90 | 1008.7 |
| 20260505010953 | 49 | 108 | 0.0 | 0.0 | 0.00 | 0.06 | 0.00 | 90 | 1008.6 |
| 20260505010853 | 49 | 108 | 0.0 | 0.0 | 0.00 | 0.06 | 0.00 | 90 | 1008.6 |
| 20260505010752 | 49 | 108 | 0.0 | 0.0 | 0.00 | 0.06 | 0.00 | 90 | 1008.6 |
| 20260505010650 | 49 | 108 | 0.0 | 0.0 | 0.00 | 0.06 | 0.00 | 90 | 1008.6 |
| 20260505010529 | 49 | 108 | 0.0 | 0.0 | 0.00 | 0.06 | 0.00 | 90 | 1008.6 |
| 20260505010450 | 49 | 108 | 0.0 | 0.0 | 0.00 | 0.06 | 0.00 | 90 | 1008.6 |
| 20260505010348 | 49 | 108 | 0.0 | 0.0 | 0.00 | 0.06 | 0.00 | 90 | 1008.6 |
| 20260505010247 | 49 | 108 | 0.0 | 0.0 | 0.00 | 0.06 | 0.00 | 90 | 1008.6 |
| 20260505010144 | 49 | 108 | 0.0 | 0.0 | 0.00 | 0.06 | 0.00 | 90 | 1008.6 |
| 20260505010029 | 49 | 108 | 0.0 | 0.0 | 0.00 | 0.06 | 0.00 | 90 | 1008.6 |
| 20260505005944 | 49 | 108 | 0.0 | 0.0 | 0.00 | 0.06 | 0.00 | 90 | 1008.6 |
| 20260505005843 | 49 | 108 | 0.0 | 0.0 | 0.00 | 0.06 | 0.00 | 90 | 1008.7 |
| 20260505005740 | 49 | 108 | 0.0 | 0.0 | 0.00 | 0.06 | 0.00 | 90 | 1008.6 |
| 20260505005640 | 49 | 108 | 0.0 | 0.0 | 0.00 | 0.06 | 0.00 | 90 | 1008.6 |
| 20260505005529 | 49 | 108 | 0.0 | 0.0 | 0.00 | 0.06 | 0.00 | 90 | 1008.7 |
| 20260505005441 | 49 | 108 | 0.0 | 0.0 | 0.00 | 0.06 | 0.00 | 90 | 1008.7 |
| 20260505005336 | 49 | 108 | 0.0 | 0.0 | 0.00 | 0.06 | 0.00 | 90 | 1008.6 |
| 20260505005240 | 49 | 108 | 0.0 | 0.0 | 0.00 | 0.06 | 0.00 | 90 | 1008.7 |
| 20260505005134 | 50 | 108 | 0.0 | 0.0 | 0.00 | 0.06 | 0.00 | 90 | 1008.7 |
| 20260505005028 | 50 | 108 | 0.0 | 0.0 | 0.00 | 0.06 | 0.00 | 90 | 1008.6 |
| 20260505004936 | 50 | 108 | 0.0 | 0.0 | 0.00 | 0.06 | 0.00 | 90 | 1008.7 |
| 20260505004829 | 50 | 108 | 0.0 | 0.0 | 0.00 | 0.06 | 0.00 | 90 | 1008.7 |
| 20260505004734 | 50 | 108 | 0.0 | 0.0 | 0.00 | 0.06 | 0.00 | 90 | 1008.7 |
| 20260505004629 | 50 | 108 | 0.0 | 1.0 | 0.00 | 0.06 | 0.00 | 90 | 1008.7 |
| 20260505004531 | 50 | 108 | 0.0 | 1.0 | 0.00 | 0.06 | 0.00 | 89 | 1008.7 |
| 20260505004429 | 50 | 108 | 0.0 | 1.0 | 0.00 | 0.06 | 0.00 | 89 | 1008.7 |
| 20260505004329 | 50 | 108 | 0.0 | 1.0 | 0.00 | 0.06 | 0.00 | 89 | 1008.7 |
| 20260505004234 | 50 | 108 | 0.0 | 1.0 | 0.00 | 0.06 | 0.00 | 89 | 1008.7 |
| 20260505004129 | 50 | 108 | 0.0 | 1.0 | 0.00 | 0.06 | 0.00 | 89 | 1008.7 |
| 20260505004031 | 50 | 108 | 0.0 | 1.0 | 0.00 | 0.06 | 0.00 | 89 | 1008.7 |
| 20260505003929 | 50 | 108 | 0.0 | 1.0 | 0.00 | 0.06 | 0.00 | 89 | 1008.7 |
| 20260505003826 | 50 | 108 | 0.0 | 1.0 | 0.00 | 0.06 | 0.00 | 89 | 1008.8 |
| 20260505003729 | 50 | 108 | 0.0 | 2.0 | 0.00 | 0.06 | 0.00 | 89 | 1008.8 |
| 20260505003626 | 50 | 108 | 0.0 | 2.0 | 0.00 | 0.06 | 0.00 | 89 | 1008.8 |
| 20260505003524 | 50 | 108 | 1.0 | 2.0 | 0.00 | 0.06 | 0.00 | 89 | 1008.8 |
| 20260505003424 | 50 | 108 | 1.0 | 2.0 | 0.00 | 0.06 | 0.00 | 90 | 1008.8 |
| 20260505003322 | 50 | 108 | 1.0 | 2.0 | 0.00 | 0.06 | 0.00 | 90 | 1008.9 |
| 20260505003224 | 50 | 108 | 1.0 | 2.0 | 0.00 | 0.06 | 0.00 | 90 | 1008.8 |
| 20260505003117 | 50 | 108 | 1.0 | 2.0 | 0.00 | 0.06 | 0.00 | 90 | 1008.8 |
| 20260505003016 | 50 | 108 | 1.0 | 2.0 | 0.00 | 0.06 | 0.00 | 90 | 1008.8 |
| 20260505002916 | 50 | 108 | 1.0 | 2.0 | 0.00 | 0.06 | 0.00 | 90 | 1008.8 |
| 20260505002816 | 50 | 108 | 0.0 | 2.0 | 0.00 | 0.06 | 0.00 | 90 | 1008.8 |
| 20260505002718 | 50 | 108 | 0.0 | 2.0 | 0.00 | 0.06 | 0.00 | 90 | 1008.8 |
| 20260505002610 | 50 | 108 | 0.0 | 2.0 | 0.00 | 0.06 | 0.00 | 90 | 1008.8 |
| 20260505002529 | 50 | 108 | 0.0 | 2.0 | 0.00 | 0.06 | 0.00 | 90 | 1008.8 |
| 20260505002508 | 50 | 109 | 0.0 | 2.0 | 0.00 | 0.06 | 0.00 | 89 | 1008.8 |
| 20260505002409 | 50 | 109 | 0.0 | 2.0 | 0.00 | 0.06 | 0.00 | 89 | 1008.8 |
| 20260505002211 | 51 | 109 | 0.0 | 0.0 | 0.00 | 0.06 | 0.00 | 89 | 1008.8 |
| 20260505002104 | 50 | 109 | 0.0 | 0.0 | 0.00 | 0.06 | 0.00 | 90 | 1008.9 |
| 20260505002025 | 51 | 109 | 0.0 | 0.0 | 0.00 | 0.06 | 0.00 | 90 | 1008.9 |
| 20260505002002 | 51 | 109 | 0.0 | 0.0 | 0.00 | 0.06 | 0.00 | 89 | 1008.9 |
| 20260505001902 | 51 | 109 | 0.0 | 0.0 | 0.00 | 0.06 | 0.00 | 90 | 1008.9 |
| 20260505001802 | 51 | 109 | 0.0 | 0.0 | 0.00 | 0.06 | 0.00 | 90 | 1008.9 |
| 20260505001706 | 51 | 109 | 0.0 | 0.0 | 0.00 | 0.06 | 0.00 | 90 | 1008.9 |
| 20260505001602 | 51 | 109 | 0.0 | 0.0 | 0.00 | 0.06 | 0.00 | 90 | 1008.9 |
| 20260505001501 | 51 | 109 | 0.0 | 0.0 | 0.00 | 0.06 | 0.00 | 90 | 1008.9 |
| 20260505001401 | 51 | 109 | 0.0 | 0.0 | 0.00 | 0.06 | 0.00 | 90 | 1008.9 |
| 20260505001301 | 51 | 109 | 0.0 | 0.0 | 0.00 | 0.06 | 0.00 | 90 | 1008.9 |
| 20260505001201 | 51 | 109 | 0.0 | 0.0 | 0.00 | 0.06 | 0.00 | 90 | 1008.9 |
| 20260505001102 | 51 | 109 | 0.0 | 0.0 | 0.00 | 0.06 | 0.00 | 90 | 1008.9 |
| 20260505001014 | 51 | 109 | 0.0 | 0.0 | 0.00 | 0.06 | 0.00 | 90 | 1008.9 |
| 20260505001001 | 51 | 109 | 0.0 | 1.0 | 0.00 | 0.06 | 0.00 | 90 | 1008.9 |
| 20260505000901 | 51 | 109 | 0.0 | 1.0 | 0.00 | 0.06 | 0.00 | 90 | 1008.9 |
| 20260505000801 | 51 | 109 | 0.0 | 2.0 | 0.00 | 0.06 | 0.00 | 90 | 1008.9 |
| 20260505000701 | 51 | 109 | 0.0 | 2.0 | 0.00 | 0.06 | 0.00 | 90 | 1008.9 |
| 20260505000600 | 51 | 109 | 0.0 | 2.0 | 0.00 | 0.06 | 0.00 | 90 | 1008.9 |
| 20260505000501 | 51 | 109 | 0.0 | 2.0 | 0.00 | 0.06 | 0.00 | 90 | 1008.9 |
| 20260505000401 | 51 | 109 | 0.0 | 2.0 | 0.00 | 0.06 | 0.00 | 90 | 1008.9 |
| 20260505000301 | 51 | 109 | 0.0 | 2.0 | 0.00 | 0.06 | 0.00 | 90 | 1009.0 |
| 20260505000235 | 51 | 109 | 0.0 | 2.0 | 0.00 | 0.06 | 0.00 | 90 | 1009.0 |
| 20260505000228 | 51 | 109 | 0.0 | 2.0 | 0.00 | 0.06 | 0.00 | 90 | 1009.0 |
| 20260505000220 | 51 | 109 | 0.0 | 2.0 | 0.00 | 0.06 | 0.00 | 90 | 1009.0 |
| 20260505000001 | 51 | 109 | 0.0 | 2.0 | 0.00 | 0.06 | 0.00 | 90 | 1009.0 |
| 20260504235900 | 51 | 109 | 0.0 | 2.0 | 0.00 | 0.06 | 0.00 | 90 | 1009.0 |
| 20260504235800 | 51 | 109 | 0.0 | 1.0 | 0.00 | 0.06 | 0.00 | 90 | 1009.0 |
| 20260504235741 | 51 | 109 | 0.0 | 1.0 | 0.00 | 0.06 | 0.00 | 90 | 1009.0 |
| 20260504235729 | 51 | 109 | 0.0 | 1.0 | 0.00 | 0.06 | 0.00 | 90 | 1009.0 |
| 20260504235721 | 51 | 109 | 0.0 | 1.0 | 0.00 | 0.06 | 0.00 | 90 | 1009.0 |
| 20260504235500 | 51 | 109 | 0.0 | 1.0 | 0.00 | 0.06 | 0.00 | 90 | 1009.0 |
| 20260504235401 | 51 | 109 | 0.0 | 1.0 | 0.00 | 0.06 | 0.00 | 90 | 1009.0 |
| 20260504235301 | 51 | 109 | 0.0 | 0.0 | 0.00 | 0.06 | 0.00 | 90 | 1009.0 |
| 20260504235201 | 51 | 109 | 0.0 | 0.0 | 0.00 | 0.06 | 0.00 | 90 | 1009.0 |
| 20260504235101 | 51 | 109 | 0.0 | 0.0 | 0.00 | 0.06 | 0.00 | 90 | 1009.0 |
| 20260504235000 | 51 | 109 | 0.0 | 1.0 | 0.00 | 0.06 | 0.00 | 90 | 1009.1 |
| 20260504234900 | 51 | 109 | 0.0 | 1.0 | 0.00 | 0.06 | 0.00 | 90 | 1009.1 |
| 20260504234806 | 51 | 109 | 0.0 | 2.0 | 0.00 | 0.06 | 0.00 | 90 | 1009.1 |
| 20260504234702 | 51 | 109 | 0.0 | 2.0 | 0.00 | 0.06 | 0.00 | 90 | 1009.1 |
| 20260504234601 | 51 | 109 | 0.0 | 2.0 | 0.00 | 0.06 | 0.00 | 90 | 1009.1 |
| 20260504234502 | 51 | 109 | 0.0 | 2.0 | 0.00 | 0.06 | 0.00 | 90 | 1009.1 |
| 20260504234302 | 51 | 109 | 0.0 | 2.0 | 0.00 | 0.06 | 0.00 | 90 | 1009.1 |
| 20260504234201 | 51 | 109 | 0.0 | 2.0 | 0.00 | 0.06 | 0.00 | 90 | 1009.1 |
| 20260504234102 | 51 | 109 | 0.0 | 2.0 | 0.00 | 0.06 | 0.00 | 90 | 1009.1 |
| 20260504234001 | 51 | 109 | 0.0 | 2.0 | 0.00 | 0.06 | 0.00 | 90 | 1009.2 |
| 20260504233901 | 51 | 109 | 0.0 | 2.0 | 0.00 | 0.06 | 0.00 | 90 | 1009.2 |
| 20260504233801 | 51 | 109 | 0.0 | 2.0 | 0.00 | 0.06 | 0.00 | 90 | 1009.2 |
| 20260504233731 | 51 | 109 | 0.0 | 2.0 | 0.00 | 0.06 | 0.00 | 90 | 1009.2 |
| 20260504233725 | 51 | 109 | 0.0 | 2.0 | 0.00 | 0.06 | 0.00 | 90 | 1009.2 |
| 20260504233717 | 51 | 109 | 0.0 | 2.0 | 0.00 | 0.06 | 0.00 | 90 | 1009.2 |
| 20260504233501 | 51 | 109 | 0.0 | 2.0 | 0.00 | 0.06 | 0.00 | 90 | 1009.2 |
| 20260504233401 | 51 | 109 | 0.0 | 2.0 | 0.00 | 0.06 | 0.00 | 90 | 1009.3 |
| 20260504233301 | 51 | 109 | 0.0 | 2.0 | 0.00 | 0.06 | 0.00 | 90 | 1009.3 |
| 20260504233232 | 51 | 110 | 0.0 | 2.0 | 0.00 | 0.06 | 0.00 | 90 | 1009.2 |
| 20260504233224 | 51 | 109 | 0.0 | 2.0 | 0.00 | 0.06 | 0.00 | 90 | 1009.2 |
| 20260504233216 | 51 | 110 | 0.0 | 2.0 | 0.00 | 0.06 | 0.00 | 90 | 1009.3 |
| 20260504233001 | 51 | 110 | 0.0 | 2.0 | 0.00 | 0.06 | 0.00 | 90 | 1009.2 |
| 20260504232900 | 51 | 110 | 0.0 | 2.0 | 0.00 | 0.06 | 0.00 | 90 | 1009.3 |
| 20260504232800 | 51 | 110 | 0.0 | 2.0 | 0.00 | 0.06 | 0.00 | 90 | 1009.3 |
| 20260504232730 | 51 | 110 | 0.0 | 1.0 | 0.00 | 0.06 | 0.00 | 90 | 1009.3 |
| 20260504232721 | 51 | 110 | 0.0 | 1.0 | 0.00 | 0.06 | 0.00 | 90 | 1009.3 |
| 20260504232713 | 51 | 110 | 0.0 | 1.0 | 0.00 | 0.06 | 0.00 | 90 | 1009.3 |
| 20260504232456 | 51 | 111 | 0.0 | 1.0 | 0.00 | 0.06 | 0.00 | 90 | 1009.3 |
| 20260504232356 | 51 | 111 | 0.0 | 1.0 | 0.00 | 0.06 | 0.00 | 90 | 1009.3 |
| 20260504232256 | 51 | 111 | 0.0 | 1.0 | 0.00 | 0.06 | 0.00 | 90 | 1009.3 |
| 20260504232156 | 51 | 110 | 0.0 | 1.0 | 0.00 | 0.06 | 0.00 | 90 | 1009.3 |
| 20260504232056 | 51 | 110 | 0.0 | 2.0 | 0.00 | 0.06 | 0.00 | 90 | 1009.3 |
| 20260504232002 | 51 | 110 | 0.0 | 2.0 | 0.00 | 0.06 | 0.00 | 90 | 1009.3 |
| 20260504231953 | 51 | 111 | 0.0 | 2.0 | 0.00 | 0.06 | 0.00 | 90 | 1009.3 |
| 20260504231854 | 51 | 111 | 0.0 | 2.0 | 0.00 | 0.06 | 0.00 | 90 | 1009.4 |
| 20260504231754 | 51 | 111 | 0.0 | 2.0 | 0.00 | 0.06 | 0.00 | 90 | 1009.4 |
| 20260504231725 | 51 | 108 | 0.0 | 2.0 | 0.00 | 0.06 | 0.00 | 89 | 1009.4 |
| 20260504231721 | 51 | 108 | 0.0 | 2.0 | 0.00 | 0.06 | 0.00 | 90 | 1009.4 |
| 20260504231713 | 51 | 108 | 0.0 | 2.0 | 0.00 | 0.06 | 0.00 | 90 | 1009.4 |
| 20260504231450 | 51 | 108 | 0.0 | 2.0 | 0.00 | 0.06 | 0.00 | 89 | 1009.4 |
| 20260504231349 | 51 | 109 | 0.0 | 2.0 | 0.00 | 0.06 | 0.00 | 89 | 1009.4 |
| 20260504231250 | 51 | 108 | 0.0 | 2.0 | 0.00 | 0.06 | 0.00 | 89 | 1009.5 |
| 20260504231150 | 51 | 109 | 0.0 | 2.0 | 0.00 | 0.06 | 0.00 | 89 | 1009.4 |
| 20260504231049 | 51 | 109 | 0.0 | 2.0 | 0.00 | 0.06 | 0.00 | 89 | 1009.5 |
| 20260504231001 | 51 | 109 | 0.0 | 2.0 | 0.00 | 0.06 | 0.00 | 89 | 1009.5 |
| 20260504230948 | 51 | 109 | 0.0 | 2.0 | 0.00 | 0.06 | 0.00 | 89 | 1009.5 |
| 20260504230846 | 51 | 109 | 0.0 | 2.0 | 0.00 | 0.06 | 0.00 | 89 | 1009.5 |
| 20260504230746 | 51 | 107 | 0.0 | 2.0 | 0.00 | 0.06 | 0.00 | 89 | 1009.5 |
| 20260504230644 | 51 | 107 | 0.0 | 2.0 | 0.00 | 0.06 | 0.00 | 89 | 1009.5 |
| 20260504230542 | 51 | 101 | 0.0 | 2.0 | 0.00 | 0.06 | 0.00 | 89 | 1009.4 |
| 20260504230502 | 51 | 101 | 0.0 | 2.0 | 0.00 | 0.06 | 0.00 | 89 | 1009.4 |
| 20260504230440 | 51 | 103 | 0.0 | 2.0 | 0.00 | 0.06 | 0.00 | 89 | 1009.5 |
| 20260504230340 | 51 | 105 | 0.0 | 2.0 | 0.00 | 0.06 | 0.00 | 89 | 1009.5 |
| 20260504230240 | 51 | 105 | 0.0 | 2.0 | 0.00 | 0.06 | 0.00 | 89 | 1009.5 |
| 20260504230222 | 51 | 105 | 0.0 | 2.0 | 0.00 | 0.06 | 0.00 | 89 | 1009.5 |
| 20260504230214 | 51 | 105 | 1.0 | 2.0 | 0.00 | 0.06 | 0.00 | 89 | 1009.5 |
| 20260504225936 | 51 | 105 | 1.0 | 2.0 | 0.00 | 0.06 | 0.00 | 89 | 1009.4 |
| 20260504225834 | 51 | 105 | 1.0 | 3.0 | 0.00 | 0.06 | 0.00 | 89 | 1009.5 |
| 20260504225732 | 51 | 105 | 1.0 | 3.0 | 0.00 | 0.06 | 0.00 | 88 | 1009.4 |
| 20260504225632 | 51 | 96 | 1.0 | 3.0 | 0.00 | 0.06 | 0.00 | 88 | 1009.5 |
| 20260504225502 | 51 | 97 | 1.0 | 3.0 | 0.00 | 0.06 | 0.00 | 88 | 1009.5 |
| 20260504225430 | 51 | 97 | 1.0 | 3.0 | 0.00 | 0.06 | 0.00 | 88 | 1009.5 |
| 20260504225330 | 52 | 97 | 1.0 | 3.0 | 0.00 | 0.06 | 0.00 | 88 | 1009.5 |
| 20260504225230 | 52 | 97 | 1.0 | 3.0 | 0.00 | 0.06 | 0.00 | 88 | 1009.5 |
| 20260504225130 | 52 | 97 | 1.0 | 3.0 | 0.00 | 0.06 | 0.00 | 88 | 1009.5 |
| 20260504225001 | 52 | 97 | 1.0 | 3.0 | 0.00 | 0.06 | 0.00 | 87 | 1009.5 |
| 20260504224930 | 52 | 97 | 1.0 | 3.0 | 0.00 | 0.06 | 0.00 | 87 | 1009.5 |
| 20260504224830 | 52 | 104 | 1.0 | 2.0 | 0.00 | 0.06 | 0.00 | 87 | 1009.5 |
| 20260504224727 | 52 | 100 | 1.0 | 3.0 | 0.00 | 0.06 | 0.00 | 88 | 1009.5 |
| 20260504224628 | 52 | 94 | 1.0 | 4.0 | 0.00 | 0.06 | 0.00 | 88 | 1009.5 |
| 20260504224502 | 52 | 103 | 1.0 | 7.0 | 0.00 | 0.06 | 0.00 | 88 | 1009.5 |
| 20260504224428 | 52 | 103 | 1.0 | 7.0 | 0.00 | 0.06 | 0.00 | 88 | 1009.5 |
| 20260504224328 | 52 | 103 | 2.0 | 7.0 | 0.00 | 0.06 | 0.00 | 88 | 1009.5 |
| 20260504224224 | 52 | 103 | 2.0 | 7.0 | 0.00 | 0.06 | 0.00 | 88 | 1009.5 |
| 20260504224124 | 52 | 103 | 2.0 | 7.0 | 0.00 | 0.06 | 0.00 | 88 | 1009.5 |
| 20260504224001 | 52 | 103 | 1.0 | 7.0 | 0.00 | 0.06 | 0.00 | 87 | 1009.5 |
| 20260504223924 | 52 | 103 | 1.0 | 7.0 | 0.00 | 0.06 | 0.00 | 87 | 1009.5 |
| 20260504223822 | 53 | 103 | 1.0 | 7.0 | 0.00 | 0.06 | 0.00 | 87 | 1009.5 |
| 20260504223718 | 53 | 125 | 1.0 | 7.0 | 0.00 | 0.06 | 0.00 | 88 | 1009.5 |
| 20260504223618 | 53 | 126 | 1.0 | 7.0 | 0.00 | 0.06 | 0.00 | 88 | 1009.5 |
| 20260504223518 | 53 | 96 | 0.0 | 3.0 | 0.00 | 0.06 | 0.00 | 88 | 1009.5 |
| 20260504223458 | 53 | 72 | 0.0 | 3.0 | 0.00 | 0.06 | 0.00 | 88 | 1009.5 |
| 20260504223418 | 53 | 71 | 0.0 | 3.0 | 0.00 | 0.06 | 0.00 | 88 | 1009.5 |
| 20260504223316 | 53 | 318 | 0.0 | 0.0 | 0.00 | 0.06 | 0.00 | 88 | 1009.5 |
| 20260504223222 | 53 | 317 | 0.0 | 2.0 | 0.00 | 0.06 | 0.00 | 88 | 1009.4 |
| 20260504223216 | 53 | 317 | 0.0 | 2.0 | 0.00 | 0.06 | 0.00 | 88 | 1009.5 |
| 20260504223212 | 53 | 317 | 0.0 | 2.0 | 0.00 | 0.06 | 0.00 | 88 | 1009.5 |
| 20260504223203 | 53 | 317 | 0.0 | 2.0 | 0.00 | 0.06 | 0.00 | 88 | 1009.4 |
| 20260504222911 | 53 | 317 | 0.0 | 2.0 | 0.00 | 0.06 | 0.00 | 88 | 1009.4 |
| 20260504222809 | 53 | 317 | 1.0 | 2.0 | 0.00 | 0.06 | 0.00 | 88 | 1009.5 |
| 20260504222710 | 53 | 317 | 1.0 | 2.0 | 0.00 | 0.06 | 0.00 | 88 | 1009.4 |
| 20260504222612 | 53 | 317 | 1.0 | 2.0 | 0.00 | 0.06 | 0.00 | 88 | 1009.4 |
| 20260504222508 | 53 | 317 | 1.0 | 2.0 | 0.00 | 0.06 | 0.00 | 88 | 1009.4 |
| 20260504222452 | 53 | 317 | 1.0 | 2.0 | 0.00 | 0.06 | 0.00 | 88 | 1009.5 |
| 20260504222406 | 53 | 317 | 1.0 | 2.0 | 0.00 | 0.06 | 0.00 | 88 | 1009.5 |
| 20260504222305 | 53 | 317 | 1.0 | 2.0 | 0.00 | 0.06 | 0.00 | 88 | 1009.5 |
| 20260504222204 | 53 | 317 | 1.0 | 2.0 | 0.00 | 0.06 | 0.00 | 88 | 1009.5 |
| 20260504222101 | 53 | 317 | 1.0 | 2.0 | 0.00 | 0.06 | 0.00 | 88 | 1009.4 |
| 20260504222001 | 53 | 317 | 1.0 | 2.0 | 0.00 | 0.06 | 0.00 | 88 | 1009.5 |
| 20260504221952 | 53 | 317 | 1.0 | 2.0 | 0.00 | 0.06 | 0.00 | 88 | 1009.5 |
| 20260504221901 | 53 | 317 | 1.0 | 2.0 | 0.00 | 0.06 | 0.00 | 88 | 1009.5 |
| 20260504221801 | 53 | 317 | 1.0 | 2.0 | 0.00 | 0.06 | 0.00 | 88 | 1009.5 |
| 20260504221701 | 53 | 317 | 1.0 | 2.0 | 0.00 | 0.06 | 0.00 | 88 | 1009.5 |
| 20260504221601 | 53 | 317 | 1.0 | 2.0 | 0.00 | 0.06 | 0.00 | 88 | 1009.5 |
| 20260504221501 | 53 | 317 | 1.0 | 2.0 | 0.00 | 0.06 | 0.00 | 88 | 1009.5 |
| 20260504221451 | 53 | 317 | 1.0 | 2.0 | 0.00 | 0.06 | 0.00 | 88 | 1009.5 |
| 20260504221405 | 54 | 317 | 1.0 | 2.0 | 0.00 | 0.06 | 0.00 | 88 | 1009.5 |
| 20260504221301 | 54 | 317 | 0.0 | 2.0 | 0.00 | 0.06 | 0.00 | 88 | 1009.5 |
| 20260504221201 | 54 | 317 | 0.0 | 2.0 | 0.00 | 0.06 | 0.00 | 88 | 1009.5 |
| 20260504221101 | 54 | 317 | 0.0 | 2.0 | 0.00 | 0.06 | 0.00 | 88 | 1009.5 |
| 20260504221001 | 54 | 317 | 0.0 | 2.0 | 0.00 | 0.06 | 0.00 | 88 | 1009.5 |
| 20260504220952 | 54 | 317 | 1.0 | 2.0 | 0.00 | 0.06 | 0.00 | 88 | 1009.5 |
| 20260504220901 | 54 | 317 | 1.0 | 2.0 | 0.00 | 0.06 | 0.00 | 88 | 1009.5 |
| 20260504220801 | 54 | 317 | 1.0 | 2.0 | 0.00 | 0.06 | 0.00 | 87 | 1009.6 |
| 20260504220701 | 54 | 317 | 1.0 | 2.0 | 0.00 | 0.06 | 0.00 | 87 | 1009.6 |
| 20260504220606 | 54 | 317 | 1.0 | 2.0 | 0.00 | 0.06 | 0.00 | 87 | 1009.6 |
| 20260504220501 | 54 | 317 | 1.0 | 2.0 | 0.00 | 0.06 | 0.00 | 87 | 1009.6 |
| 20260504220452 | 54 | 317 | 1.0 | 2.0 | 0.00 | 0.06 | 0.00 | 87 | 1009.5 |
| 20260504220401 | 54 | 317 | 1.0 | 2.0 | 0.00 | 0.06 | 0.00 | 87 | 1009.5 |
| 20260504220300 | 54 | 317 | 1.0 | 2.0 | 0.00 | 0.06 | 0.00 | 87 | 1009.6 |
| 20260504220200 | 54 | 317 | 1.0 | 2.0 | 0.00 | 0.06 | 0.00 | 87 | 1009.6 |
| 20260504220103 | 54 | 317 | 1.0 | 2.0 | 0.00 | 0.06 | 0.00 | 87 | 1009.6 |
| 20260504220001 | 54 | 317 | 0.0 | 2.0 | 0.00 | 0.06 | 0.00 | 88 | 1009.7 |
| 20260504215951 | 54 | 317 | 0.0 | 2.0 | 0.00 | 0.06 | 0.06 | 88 | 1009.6 |
| 20260504215901 | 54 | 317 | 0.0 | 2.0 | 0.00 | 0.06 | 0.06 | 88 | 1009.6 |
| 20260504215801 | 54 | 317 | 0.0 | 2.0 | 0.00 | 0.06 | 0.06 | 88 | 1009.7 |
| 20260504215701 | 54 | 317 | 0.0 | 2.0 | 0.00 | 0.06 | 0.06 | 88 | 1009.7 |
| 20260504215600 | 54 | 317 | 0.0 | 0.0 | 0.00 | 0.06 | 0.06 | 87 | 1009.7 |
| 20260504215500 | 54 | 317 | 0.0 | 1.0 | 0.00 | 0.06 | 0.06 | 87 | 1009.7 |
| 20260504215449 | 54 | 317 | 0.0 | 1.0 | 0.00 | 0.06 | 0.06 | 87 | 1009.7 |
| 20260504215400 | 54 | 317 | 0.0 | 1.0 | 0.00 | 0.06 | 0.06 | 87 | 1009.7 |
| 20260504215300 | 54 | 317 | 0.0 | 1.0 | 0.00 | 0.06 | 0.06 | 87 | 1009.7 |
| 20260504215201 | 54 | 317 | 0.0 | 2.0 | 0.00 | 0.06 | 0.06 | 87 | 1009.7 |
| 20260504215101 | 54 | 317 | 0.0 | 2.0 | 0.00 | 0.06 | 0.06 | 87 | 1009.7 |
| 20260504215002 | 54 | 317 | 0.0 | 2.0 | 0.00 | 0.06 | 0.06 | 87 | 1009.7 |
| 20260504214948 | 54 | 317 | 0.0 | 2.0 | 0.00 | 0.06 | 0.06 | 87 | 1009.8 |
| 20260504214901 | 54 | 317 | 0.0 | 2.0 | 0.00 | 0.06 | 0.06 | 87 | 1009.8 |
| 20260504214759 | 54 | 317 | 0.0 | 2.0 | 0.00 | 0.06 | 0.06 | 87 | 1009.8 |
| 20260504214717 | 54 | 317 | 0.0 | 2.0 | 0.00 | 0.06 | 0.06 | 87 | 1009.8 |
| 20260504214712 | 54 | 317 | 0.0 | 2.0 | 0.00 | 0.06 | 0.06 | 87 | 1009.8 |
| 20260504214708 | 54 | 317 | 0.0 | 2.0 | 0.00 | 0.06 | 0.06 | 87 | 1009.8 |
| 20260504214700 | 54 | 317 | 0.0 | 2.0 | 0.00 | 0.06 | 0.06 | 87 | 1009.9 |
| 20260504214358 | 54 | 317 | 0.0 | 2.0 | 0.00 | 0.06 | 0.06 | 87 | 1009.9 |
| 20260504214253 | 54 | 317 | 0.0 | 2.0 | 0.00 | 0.06 | 0.06 | 87 | 1009.9 |
| 20260504214153 | 54 | 317 | 0.0 | 1.0 | 0.00 | 0.06 | 0.06 | 87 | 1009.9 |
| 20260504214053 | 54 | 317 | 0.0 | 0.0 | 0.00 | 0.06 | 0.06 | 87 | 1009.9 |
| 20260504213946 | 54 | 317 | 0.0 | 0.0 | 0.00 | 0.06 | 0.06 | 87 | 1009.8 |
| 20260504213852 | 55 | 317 | 0.0 | 0.0 | 0.00 | 0.06 | 0.06 | 86 | 1009.9 |
| 20260504213747 | 55 | 317 | 0.0 | 0.0 | 0.00 | 0.06 | 0.06 | 87 | 1009.9 |
| 20260504213647 | 55 | 317 | 0.0 | 1.0 | 0.00 | 0.06 | 0.06 | 86 | 1009.9 |
| 20260504213547 | 55 | 317 | 0.0 | 2.0 | 0.00 | 0.06 | 0.06 | 86 | 1009.9 |
| 20260504213445 | 55 | 317 | 1.0 | 3.0 | 0.00 | 0.06 | 0.06 | 86 | 1009.9 |
| 20260504213347 | 55 | 317 | 1.0 | 3.0 | 0.00 | 0.06 | 0.06 | 86 | 1009.9 |
| 20260504213247 | 55 | 317 | 1.0 | 3.0 | 0.00 | 0.06 | 0.06 | 86 | 1009.9 |
| 20260504213145 | 55 | 317 | 1.0 | 3.0 | 0.00 | 0.06 | 0.06 | 86 | 1010.0 |
| 20260504213046 | 55 | 317 | 1.0 | 3.0 | 0.00 | 0.06 | 0.06 | 86 | 1010.0 |
| 20260504212942 | 55 | 317 | 1.0 | 3.0 | 0.00 | 0.06 | 0.06 | 86 | 1010.0 |
| 20260504212904 | 55 | 317 | 1.0 | 3.0 | 0.00 | 0.06 | 0.06 | 86 | 1010.0 |
| 20260504212741 | 55 | 317 | 1.0 | 3.0 | 0.00 | 0.06 | 0.06 | 86 | 1010.0 |
| 20260504212639 | 55 | 317 | 1.0 | 3.0 | 0.00 | 0.06 | 0.06 | 86 | 1010.0 |
| 20260504212539 | 55 | 317 | 1.0 | 3.0 | 0.00 | 0.06 | 0.06 | 86 | 1010.0 |
| 20260504212443 | 55 | 317 | 1.0 | 3.0 | 0.00 | 0.06 | 0.06 | 86 | 1010.0 |
| 20260504212437 | 55 | 318 | 1.0 | 3.0 | 0.00 | 0.06 | 0.06 | 86 | 1010.0 |
| 20260504212335 | 55 | 319 | 1.0 | 3.0 | 0.00 | 0.06 | 0.06 | 86 | 1010.0 |
| 20260504212229 | 55 | 319 | 1.0 | 3.0 | 0.00 | 0.06 | 0.06 | 86 | 1010.0 |
| 20260504212129 | 55 | 319 | 2.0 | 3.0 | 0.00 | 0.06 | 0.06 | 86 | 1010.0 |
| 20260504212029 | 55 | 319 | 2.0 | 3.0 | 0.00 | 0.06 | 0.06 | 86 | 1010.0 |
| 20260504211929 | 55 | 319 | 2.0 | 3.0 | 0.00 | 0.06 | 0.06 | 86 | 1010.0 |
| 20260504211829 | 55 | 319 | 1.0 | 3.0 | 0.00 | 0.06 | 0.06 | 85 | 1010.0 |
| 20260504211729 | 55 | 319 | 2.0 | 3.0 | 0.00 | 0.06 | 0.06 | 85 | 1010.0 |
| 20260504211629 | 55 | 319 | 2.0 | 3.0 | 0.00 | 0.06 | 0.06 | 85 | 1010.0 |
| 20260504211529 | 55 | 319 | 2.0 | 3.0 | 0.00 | 0.06 | 0.06 | 85 | 1009.9 |
| 20260504211429 | 55 | 319 | 2.0 | 3.0 | 0.00 | 0.06 | 0.06 | 85 | 1010.0 |
| 20260504211330 | 55 | 319 | 2.0 | 3.0 | 0.00 | 0.06 | 0.06 | 85 | 1010.0 |
| 20260504211229 | 55 | 319 | 1.0 | 3.0 | 0.00 | 0.06 | 0.06 | 85 | 1010.0 |
| 20260504211129 | 55 | 296 | 1.0 | 3.0 | 0.00 | 0.06 | 0.06 | 85 | 1010.0 |
| 20260504211029 | 55 | 294 | 1.0 | 3.0 | 0.00 | 0.06 | 0.06 | 85 | 1010.0 |
| 20260504210942 | 55 | 295 | 1.0 | 3.0 | 0.00 | 0.06 | 0.06 | 85 | 1010.0 |
| 20260504210929 | 55 | 290 | 1.0 | 3.0 | 0.00 | 0.06 | 0.06 | 85 | 1010.0 |
| 20260504210829 | 55 | 290 | 1.0 | 3.0 | 0.00 | 0.06 | 0.06 | 85 | 1010.0 |
| 20260504210729 | 55 | 290 | 1.0 | 3.0 | 0.00 | 0.06 | 0.06 | 85 | 1010.0 |
| 20260504210629 | 56 | 276 | 1.0 | 3.0 | 0.00 | 0.06 | 0.06 | 86 | 1010.0 |
| 20260504210529 | 56 | 267 | 0.0 | 3.0 | 0.00 | 0.06 | 0.06 | 86 | 1010.0 |
| 20260504210440 | 56 | 260 | 0.0 | 3.0 | 0.00 | 0.06 | 0.06 | 86 | 1010.0 |
| 20260504210429 | 56 | 223 | 0.0 | 2.0 | 0.00 | 0.06 | 0.06 | 86 | 1010.0 |
| 20260504210329 | 56 | 150 | 0.0 | 2.0 | 0.00 | 0.06 | 0.06 | 86 | 1009.9 |
| 20260504210229 | 56 | 150 | 0.0 | 2.0 | 0.00 | 0.06 | 0.06 | 86 | 1009.9 |
| 20260504210207 | 56 | 150 | 0.0 | 2.0 | 0.00 | 0.06 | 0.06 | 85 | 1010.0 |
| 20260504210202 | 56 | 150 | 0.0 | 2.0 | 0.00 | 0.06 | 0.06 | 86 | 1009.9 |
| 20260504210158 | 56 | 150 | 0.0 | 2.0 | 0.00 | 0.06 | 0.06 | 86 | 1009.9 |
| 20260504205929 | 56 | 150 | 0.0 | 2.0 | 0.00 | 0.06 | 0.06 | 85 | 1010.0 |
| 20260504205829 | 56 | 150 | 0.0 | 2.0 | 0.00 | 0.06 | 0.06 | 85 | 1009.9 |
| 20260504205729 | 56 | 150 | 0.0 | 1.0 | 0.00 | 0.06 | 0.06 | 84 | 1009.9 |
| 20260504205629 | 56 | 150 | 0.0 | 1.0 | 0.00 | 0.06 | 0.06 | 84 | 1010.0 |
| 20260504205529 | 56 | 150 | 0.0 | 1.0 | 0.00 | 0.06 | 0.06 | 84 | 1009.9 |
| 20260504205429 | 56 | 150 | 0.0 | 1.0 | 0.00 | 0.06 | 0.06 | 84 | 1009.9 |
| 20260504205328 | 56 | 150 | 0.0 | 2.0 | 0.00 | 0.06 | 0.06 | 84 | 1009.9 |
| 20260504205228 | 56 | 150 | 0.0 | 2.0 | 0.00 | 0.06 | 0.06 | 84 | 1009.9 |
| 20260504205203 | 56 | 150 | 1.0 | 2.0 | 0.00 | 0.06 | 0.06 | 84 | 1009.9 |
| 20260504205158 | 56 | 150 | 0.0 | 2.0 | 0.00 | 0.06 | 0.06 | 84 | 1009.9 |
| 20260504205154 | 56 | 150 | 0.0 | 2.0 | 0.00 | 0.06 | 0.06 | 84 | 1009.9 |
| 20260504204928 | 56 | 150 | 1.0 | 2.0 | 0.00 | 0.06 | 0.06 | 84 | 1009.9 |
| 20260504204829 | 56 | 150 | 1.0 | 3.0 | 0.00 | 0.06 | 0.06 | 85 | 1009.9 |
| 20260504204729 | 56 | 150 | 1.0 | 3.0 | 0.00 | 0.06 | 0.06 | 83 | 1009.9 |
| 20260504204629 | 56 | 150 | 1.0 | 3.0 | 0.00 | 0.06 | 0.06 | 83 | 1009.9 |
| 20260504204529 | 56 | 150 | 1.0 | 3.0 | 0.00 | 0.06 | 0.06 | 83 | 1010.0 |
| 20260504204429 | 56 | 150 | 1.0 | 3.0 | 0.00 | 0.06 | 0.06 | 83 | 1010.0 |
| 20260504204329 | 56 | 150 | 1.0 | 3.0 | 0.00 | 0.06 | 0.06 | 83 | 1010.0 |
| 20260504204229 | 56 | 150 | 1.0 | 3.0 | 0.00 | 0.06 | 0.06 | 83 | 1010.0 |
| 20260504204129 | 56 | 150 | 1.0 | 3.0 | 0.00 | 0.06 | 0.06 | 83 | 1010.0 |
| 20260504204029 | 57 | 150 | 1.0 | 3.0 | 0.00 | 0.06 | 0.06 | 83 | 1010.1 |
| 20260504203928 | 57 | 150 | 1.0 | 3.0 | 0.00 | 0.06 | 0.06 | 83 | 1010.1 |
| 20260504203828 | 57 | 150 | 1.0 | 3.0 | 0.00 | 0.06 | 0.06 | 83 | 1010.1 |
| 20260504203729 | 57 | 149 | 1.0 | 3.0 | 0.00 | 0.06 | 0.06 | 83 | 1010.0 |
| 20260504203629 | 57 | 115 | 1.0 | 3.0 | 0.00 | 0.06 | 0.06 | 83 | 1010.1 |
| 20260504203529 | 57 | 115 | 1.0 | 3.0 | 0.00 | 0.06 | 0.06 | 83 | 1010.1 |
| 20260504203429 | 57 | 115 | 1.0 | 3.0 | 0.00 | 0.06 | 0.06 | 81 | 1010.1 |
| 20260504203329 | 57 | 115 | 1.0 | 3.0 | 0.00 | 0.06 | 0.06 | 80 | 1010.1 |
| 20260504203230 | 57 | 115 | 1.0 | 3.0 | 0.00 | 0.06 | 0.06 | 81 | 1010.0 |
| 20260504203129 | 57 | 116 | 1.0 | 3.0 | 0.00 | 0.06 | 0.06 | 82 | 1010.0 |
| 20260504203029 | 57 | 115 | 1.0 | 3.0 | 0.00 | 0.06 | 0.06 | 82 | 1010.1 |
| 20260504202928 | 57 | 106 | 1.0 | 3.0 | 0.00 | 0.06 | 0.06 | 82 | 1010.0 |
| 20260504202829 | 57 | 105 | 1.0 | 3.0 | 0.00 | 0.06 | 0.06 | 83 | 1010.0 |
| 20260504202729 | 57 | 96 | 1.0 | 3.0 | 0.00 | 0.06 | 0.06 | 82 | 1010.0 |
| 20260504202629 | 57 | 95 | 1.0 | 3.0 | 0.00 | 0.06 | 0.06 | 82 | 1010.0 |
| 20260504202529 | 57 | 95 | 1.0 | 4.0 | 0.00 | 0.06 | 0.06 | 82 | 1010.0 |
| 20260504202437 | 57 | 94 | 1.0 | 4.0 | 0.00 | 0.06 | 0.06 | 83 | 1010.0 |
| 20260504202429 | 57 | 93 | 1.0 | 4.0 | 0.00 | 0.06 | 0.06 | 83 | 1010.0 |
| 20260504202328 | 56 | 92 | 1.0 | 4.0 | 0.00 | 0.06 | 0.06 | 82 | 1010.0 |
| 20260504202230 | 57 | 92 | 1.0 | 4.0 | 0.00 | 0.06 | 0.06 | 82 | 1010.0 |
| 20260504202128 | 56 | 94 | 1.0 | 4.0 | 0.00 | 0.06 | 0.06 | 82 | 1009.9 |
| 20260504202029 | 56 | 61 | 1.0 | 4.0 | 0.00 | 0.06 | 0.06 | 82 | 1010.0 |
| 20260504201936 | 56 | 109 | 1.0 | 4.0 | 0.00 | 0.06 | 0.06 | 82 | 1009.9 |
| 20260504201929 | 56 | 110 | 1.0 | 4.0 | 0.00 | 0.06 | 0.06 | 82 | 1009.9 |
| 20260504201828 | 56 | 100 | 1.0 | 4.0 | 0.00 | 0.06 | 0.06 | 82 | 1010.0 |
| 20260504201729 | 56 | 101 | 1.0 | 4.0 | 0.00 | 0.06 | 0.06 | 83 | 1010.0 |
| 20260504201628 | 56 | 101 | 1.0 | 4.0 | 0.00 | 0.06 | 0.06 | 84 | 1010.0 |
| 20260504201529 | 56 | 97 | 1.0 | 3.0 | 0.00 | 0.06 | 0.06 | 84 | 1010.0 |
| 20260504201434 | 56 | 98 | 1.0 | 3.0 | 0.00 | 0.06 | 0.06 | 84 | 1010.0 |
| 20260504201427 | 56 | 99 | 1.0 | 3.0 | 0.00 | 0.06 | 0.06 | 84 | 1010.0 |
| 20260504201327 | 56 | 95 | 0.0 | 3.0 | 0.00 | 0.06 | 0.06 | 84 | 1010.1 |
| 20260504201227 | 56 | 105 | 0.0 | 3.0 | 0.00 | 0.06 | 0.06 | 85 | 1010.1 |
| 20260504201127 | 56 | 102 | 0.0 | 2.0 | 0.00 | 0.06 | 0.06 | 85 | 1010.1 |
| 20260504201027 | 57 | 105 | 0.0 | 2.0 | 0.00 | 0.06 | 0.06 | 85 | 1010.1 |
| 20260504200927 | 57 | 104 | 0.0 | 2.0 | 0.00 | 0.06 | 0.06 | 84 | 1010.1 |
| 20260504200824 | 57 | 104 | 0.0 | 2.0 | 0.00 | 0.06 | 0.06 | 84 | 1010.2 |
| 20260504200720 | 57 | 104 | 0.0 | 2.0 | 0.00 | 0.06 | 0.06 | 85 | 1010.2 |
| 20260504200620 | 57 | 104 | 0.0 | 2.0 | 0.00 | 0.06 | 0.06 | 85 | 1010.2 |
| 20260504200521 | 57 | 104 | 0.0 | 2.0 | 0.00 | 0.06 | 0.06 | 85 | 1010.2 |
| 20260504200420 | 57 | 104 | 1.0 | 2.0 | 0.00 | 0.06 | 0.06 | 85 | 1010.4 |
| 20260504200320 | 57 | 104 | 1.0 | 2.0 | 0.00 | 0.06 | 0.06 | 85 | 1010.4 |
| 20260504200220 | 57 | 104 | 1.0 | 2.0 | 0.00 | 0.06 | 0.06 | 85 | 1010.4 |
| 20260504200121 | 57 | 104 | 1.0 | 3.0 | 0.00 | 0.06 | 0.06 | 85 | 1010.4 |
| 20260504200021 | 57 | 104 | 1.0 | 3.0 | 0.00 | 0.06 | 0.06 | 84 | 1010.4 |
| 20260504195935 | 57 | 104 | 1.0 | 3.0 | 0.00 | 0.06 | 0.06 | 85 | 1010.4 |
| 20260504195921 | 57 | 103 | 1.0 | 3.0 | 0.00 | 0.06 | 0.06 | 85 | 1010.4 |
| 20260504195821 | 57 | 104 | 1.0 | 3.0 | 0.01 | 0.06 | 0.06 | 84 | 1010.4 |
| 20260504195718 | 57 | 104 | 1.0 | 3.0 | 0.01 | 0.06 | 0.06 | 85 | 1010.5 |
| 20260504195618 | 57 | 104 | 1.0 | 3.0 | 0.01 | 0.06 | 0.06 | 84 | 1010.5 |
| 20260504195514 | 57 | 103 | 1.0 | 4.0 | 0.01 | 0.06 | 0.06 | 83 | 1010.5 |
| 20260504195415 | 57 | 103 | 1.0 | 4.0 | 0.02 | 0.06 | 0.06 | 83 | 1010.4 |
| 20260504195315 | 57 | 103 | 1.0 | 4.0 | 0.02 | 0.06 | 0.06 | 83 | 1010.4 |
| 20260504195214 | 57 | 103 | 2.0 | 7.0 | 0.02 | 0.06 | 0.06 | 83 | 1010.4 |
| 20260504195157 | 57 | 107 | 2.0 | 8.0 | 0.02 | 0.06 | 0.06 | 83 | 1010.4 |
| 20260504195151 | 57 | 104 | 2.0 | 8.0 | 0.02 | 0.06 | 0.06 | 83 | 1010.2 |
| 20260504195147 | 57 | 107 | 2.0 | 8.0 | 0.02 | 0.06 | 0.06 | 83 | 1010.2 |
| 20260504194915 | 57 | 107 | 2.0 | 8.0 | 0.02 | 0.06 | 0.06 | 82 | 1010.4 |
| 20260504194815 | 57 | 108 | 2.0 | 8.0 | 0.03 | 0.06 | 0.06 | 82 | 1010.4 |
| 20260504194715 | 57 | 110 | 3.0 | 8.0 | 0.03 | 0.06 | 0.06 | 82 | 1010.2 |
| 20260504194615 | 57 | 111 | 3.0 | 8.0 | 0.04 | 0.06 | 0.06 | 82 | 1010.2 |
| 20260504194514 | 57 | 127 | 3.0 | 8.0 | 0.05 | 0.06 | 0.06 | 82 | 1010.1 |
| 20260504194414 | 57 | 128 | 3.0 | 8.0 | 0.05 | 0.06 | 0.06 | 82 | 1010.2 |
| 20260504194314 | 57 | 129 | 3.0 | 8.0 | 0.06 | 0.06 | 0.06 | 83 | 1010.2 |
| 20260504194214 | 57 | 140 | 3.0 | 8.0 | 0.06 | 0.06 | 0.06 | 82 | 1010.2 |
| 20260504194115 | 57 | 155 | 2.0 | 7.0 | 0.06 | 0.06 | 0.06 | 82 | 1010.2 |
| 20260504194015 | 57 | 123 | 2.0 | 7.0 | 0.06 | 0.06 | 0.06 | 83 | 1010.2 |
| 20260504193914 | 57 | 153 | 2.0 | 7.0 | 0.06 | 0.06 | 0.06 | 82 | 1010.2 |
| 20260504193815 | 57 | 150 | 2.0 | 7.0 | 0.06 | 0.06 | 0.06 | 83 | 1010.1 |
| 20260504193715 | 57 | 163 | 2.0 | 7.0 | 0.06 | 0.06 | 0.06 | 83 | 1010.1 |
| 20260504193611 | 57 | 173 | 2.0 | 7.0 | 0.06 | 0.06 | 0.06 | 83 | 1010.2 |
| 20260504193512 | 57 | 161 | 2.0 | 7.0 | 0.06 | 0.06 | 0.06 | 83 | 1010.1 |
| 20260504193434 | 57 | 163 | 1.0 | 7.0 | 0.06 | 0.06 | 0.06 | 83 | 1010.1 |
| 20260504193411 | 57 | 175 | 1.0 | 7.0 | 0.06 | 0.06 | 0.06 | 83 | 1010.1 |
| 20260504193311 | 57 | 148 | 1.0 | 4.0 | 0.06 | 0.06 | 0.06 | 83 | 1010.1 |
| 20260504193211 | 57 | 114 | 1.0 | 3.0 | 0.06 | 0.06 | 0.06 | 82 | 1010.1 |
| 20260504193111 | 57 | 96 | 1.0 | 3.0 | 0.06 | 0.06 | 0.06 | 82 | 1010.0 |
| 20260504193010 | 57 | 96 | 1.0 | 4.0 | 0.06 | 0.06 | 0.06 | 82 | 1010.0 |
| 20260504192910 | 57 | 95 | 1.0 | 4.0 | 0.06 | 0.06 | 0.06 | 82 | 1010.0 |
| 20260504192811 | 57 | 96 | 1.0 | 4.0 | 0.06 | 0.06 | 0.06 | 81 | 1010.0 |
| 20260504192711 | 57 | 101 | 1.0 | 4.0 | 0.06 | 0.06 | 0.06 | 81 | 1010.0 |
| 20260504192611 | 58 | 101 | 1.0 | 4.0 | 0.06 | 0.06 | 0.06 | 81 | 1010.0 |
| 20260504192511 | 58 | 98 | 1.0 | 4.0 | 0.06 | 0.06 | 0.06 | 81 | 1010.0 |
| 20260504192410 | 58 | 101 | 1.0 | 4.0 | 0.06 | 0.06 | 0.06 | 81 | 1010.0 |
| 20260504192310 | 58 | 101 | 1.0 | 4.0 | 0.06 | 0.06 | 0.06 | 81 | 1010.0 |
| 20260504192210 | 58 | 111 | 1.0 | 4.0 | 0.06 | 0.06 | 0.06 | 81 | 1010.0 |
| 20260504192110 | 58 | 111 | 1.0 | 4.0 | 0.06 | 0.06 | 0.06 | 82 | 1010.0 |
| 20260504192010 | 58 | 105 | 1.0 | 4.0 | 0.06 | 0.06 | 0.06 | 81 | 1010.0 |
| 20260504191932 | 58 | 94 | 1.0 | 4.0 | 0.06 | 0.06 | 0.06 | 81 | 1010.0 |
| 20260504191911 | 58 | 91 | 1.0 | 4.0 | 0.06 | 0.06 | 0.06 | 81 | 1010.0 |
| 20260504191811 | 58 | 91 | 2.0 | 6.0 | 0.06 | 0.06 | 0.06 | 81 | 1010.0 |
| 20260504191707 | 58 | 90 | 2.0 | 6.0 | 0.06 | 0.06 | 0.06 | 81 | 1010.0 |
| 20260504191606 | 58 | 90 | 2.0 | 7.0 | 0.06 | 0.06 | 0.06 | 81 | 1010.0 |
| 20260504191506 | 58 | 90 | 2.0 | 7.0 | 0.06 | 0.06 | 0.06 | 81 | 1010.1 |
| 20260504191431 | 58 | 84 | 2.0 | 7.0 | 0.06 | 0.06 | 0.06 | 81 | 1010.1 |
| 20260504191407 | 58 | 90 | 2.0 | 7.0 | 0.06 | 0.06 | 0.06 | 81 | 1010.1 |
| 20260504191306 | 58 | 85 | 2.0 | 7.0 | 0.06 | 0.06 | 0.06 | 80 | 1010.1 |
| 20260504191206 | 58 | 96 | 2.0 | 7.0 | 0.06 | 0.06 | 0.06 | 80 | 1010.1 |
| 20260504191106 | 58 | 92 | 3.0 | 7.0 | 0.06 | 0.06 | 0.06 | 80 | 1010.1 |
| 20260504191007 | 59 | 103 | 3.0 | 7.0 | 0.06 | 0.06 | 0.06 | 80 | 1010.2 |
| 20260504190930 | 59 | 61 | 2.0 | 7.0 | 0.06 | 0.06 | 0.06 | 80 | 1010.2 |
| 20260504190906 | 59 | 106 | 2.0 | 7.0 | 0.06 | 0.06 | 0.06 | 80 | 1010.2 |
| 20260504190806 | 59 | 88 | 2.0 | 7.0 | 0.06 | 0.06 | 0.06 | 80 | 1010.4 |
| 20260504190706 | 59 | 115 | 2.0 | 7.0 | 0.06 | 0.06 | 0.06 | 80 | 1010.4 |
| 20260504190652 | 59 | 82 | 2.0 | 4.0 | 0.06 | 0.06 | 0.06 | 78 | 1010.5 |
| 20260504190646 | 59 | 88 | 2.0 | 5.0 | 0.06 | 0.06 | 0.06 | 79 | 1010.5 |
| 20260504190640 | 59 | 79 | 2.0 | 5.0 | 0.06 | 0.06 | 0.06 | 79 | 1010.4 |
| 20260504190407 | 59 | 82 | 2.0 | 4.0 | 0.06 | 0.06 | 0.06 | 77 | 1010.5 |
| 20260504190307 | 60 | 81 | 2.0 | 4.0 | 0.06 | 0.06 | 0.06 | 77 | 1010.5 |
| 20260504190207 | 60 | 101 | 2.0 | 4.0 | 0.06 | 0.06 | 0.06 | 76 | 1010.4 |
| 20260504190107 | 60 | 91 | 2.0 | 4.0 | 0.06 | 0.06 | 0.06 | 76 | 1010.5 |
| 20260504190007 | 60 | 116 | 2.0 | 5.0 | 0.06 | 0.06 | 0.06 | 76 | 1010.5 |
| 20260504185931 | 60 | 96 | 2.0 | 5.0 | 0.06 | 0.06 | 0.05 | 76 | 1010.5 |
| 20260504185911 | 60 | 114 | 2.0 | 5.0 | 0.05 | 0.05 | 0.05 | 76 | 1010.5 |
| 20260504185802 | 61 | 103 | 2.0 | 5.0 | 0.05 | 0.05 | 0.05 | 76 | 1010.6 |
| 20260504185702 | 61 | 111 | 3.0 | 6.0 | 0.05 | 0.05 | 0.05 | 75 | 1010.7 |
| 20260504185602 | 61 | 127 | 3.0 | 9.0 | 0.05 | 0.05 | 0.05 | 75 | 1010.7 |
| 20260504185503 | 62 | 115 | 4.0 | 11.0 | 0.05 | 0.05 | 0.04 | 76 | 1010.7 |
| 20260504185430 | 62 | 105 | 4.0 | 11.0 | 0.04 | 0.04 | 0.04 | 76 | 1010.8 |
| 20260504185421 | 63 | 230 | 7.0 | 18.0 | 0.03 | 0.03 | 0.02 | 72 | 1010.7 |
| 20260504185416 | 62 | 115 | 4.0 | 11.0 | 0.04 | 0.04 | 0.04 | 76 | 1010.8 |
| 20260504185407 | 62 | 134 | 5.0 | 11.0 | 0.04 | 0.04 | 0.04 | 74 | 1010.8 |
| 20260504185403 | 62 | 183 | 6.0 | 13.0 | 0.04 | 0.04 | 0.04 | 72 | 1010.8 |
| 20260504185145 | 62 | 183 | 6.0 | 18.0 | 0.04 | 0.04 | 0.03 | 73 | 1010.8 |
| 20260504185141 | 63 | 202 | 6.0 | 18.0 | 0.03 | 0.03 | 0.03 | 72 | 1010.8 |
| 20260504184903 | 63 | 231 | 7.0 | 18.0 | 0.03 | 0.03 | 0.02 | 72 | 1010.7 |
| 20260504184800 | 63 | 228 | 7.0 | 18.0 | 0.02 | 0.02 | 0.02 | 70 | 1010.7 |
| 20260504184700 | 63 | 279 | 8.0 | 18.0 | 0.02 | 0.02 | 0.02 | 68 | 1010.7 |
| 20260504184600 | 64 | 232 | 8.0 | 18.0 | 0.02 | 0.02 | 0.01 | 68 | 1010.7 |
| 20260504184501 | 64 | 245 | 8.0 | 18.0 | 0.01 | 0.01 | 0.01 | 67 | 1010.6 |
| 20260504184430 | 64 | 259 | 8.0 | 18.0 | 0.01 | 0.01 | 0.00 | 67 | 1010.6 |
| 20260504184407 | 64 | 277 | 8.0 | 18.0 | 0.01 | 0.01 | 0.00 | 67 | 1010.6 |
| 20260504184301 | 64 | 232 | 8.0 | 18.0 | 0.00 | 0.00 | 0.00 | 65 | 1010.6 |
| 20260504184200 | 65 | 257 | 9.0 | 18.0 | 0.00 | 0.00 | 0.00 | 64 | 1010.6 |
| 20260504184100 | 65 | 273 | 9.0 | 17.0 | 0.00 | 0.00 | 0.00 | 62 | 1010.6 |
| 20260504184001 | 65 | 238 | 9.0 | 17.0 | 0.00 | 0.00 | 0.00 | 61 | 1010.5 |
| 20260504183930 | 65 | 240 | 9.0 | 17.0 | 0.00 | 0.00 | 0.00 | 61 | 1010.5 |
| 20260504183901 | 65 | 273 | 9.0 | 17.0 | 0.00 | 0.00 | 0.00 | 60 | 1010.5 |
| 20260504183801 | 65 | 225 | 9.0 | 17.0 | 0.00 | 0.00 | 0.00 | 58 | 1010.4 |
| 20260504183701 | 65 | 212 | 9.0 | 17.0 | 0.00 | 0.00 | 0.00 | 57 | 1010.4 |
| 20260504183654 | 66 | 219 | 9.0 | 20.0 | 0.00 | 0.00 | 0.00 | 54 | 1010.0 |
| 20260504183646 | 66 | 210 | 10.0 | 17.0 | 0.00 | 0.00 | 0.00 | 55 | 1010.1 |
| 20260504183642 | 66 | 212 | 10.0 | 20.0 | 0.00 | 0.00 | 0.00 | 54 | 1010.1 |
| 20260504183401 | 66 | 192 | 9.0 | 20.0 | 0.00 | 0.00 | 0.00 | 54 | 1010.0 |
| 20260504183301 | 66 | 209 | 9.0 | 20.0 | 0.00 | 0.00 | 0.00 | 55 | 1009.9 |
| 20260504183201 | 67 | 159 | 8.0 | 20.0 | 0.00 | 0.00 | 0.00 | 55 | 1009.9 |
| 20260504183152 | 67 | 215 | 6.0 | 20.0 | 0.00 | 0.00 | 0.00 | 54 | 1009.8 |
| 20260504183147 | 67 | 197 | 8.0 | 20.0 | 0.00 | 0.00 | 0.00 | 55 | 1009.9 |
| 20260504183143 | 67 | 211 | 7.0 | 20.0 | 0.00 | 0.00 | 0.00 | 54 | 1009.8 |
| 20260504182900 | 67 | 210 | 6.0 | 20.0 | 0.00 | 0.00 | 0.00 | 53 | 1009.8 |
| 20260504182800 | 68 | 236 | 5.0 | 20.0 | 0.00 | 0.00 | 0.00 | 53 | 1009.8 |
| 20260504182700 | 68 | 207 | 4.0 | 20.0 | 0.00 | 0.00 | 0.00 | 53 | 1009.8 |
| 20260504182600 | 68 | 231 | 4.0 | 20.0 | 0.00 | 0.00 | 0.00 | 52 | 1009.8 |
| 20260504182500 | 68 | 202 | 2.0 | 15.0 | 0.00 | 0.00 | 0.00 | 52 | 1009.7 |
| 20260504182429 | 68 | 201 | 2.0 | 8.0 | 0.00 | 0.00 | 0.00 | 52 | 1009.6 |
| 20260504182401 | 68 | 216 | 2.0 | 7.0 | 0.00 | 0.00 | 0.00 | 51 | 1009.6 |
| 20260504182301 | 68 | 207 | 2.0 | 6.0 | 0.00 | 0.00 | 0.00 | 50 | 1009.4 |
| 20260504182201 | 68 | 42 | 1.0 | 5.0 | 0.00 | 0.00 | 0.00 | 49 | 1009.3 |
| 20260504182101 | 68 | 41 | 2.0 | 5.0 | 0.00 | 0.00 | 0.00 | 49 | 1009.3 |
| 20260504182002 | 69 | 41 | 2.0 | 5.0 | 0.00 | 0.00 | 0.00 | 50 | 1009.2 |
| 20260504181900 | 69 | 41 | 2.0 | 5.0 | 0.00 | 0.00 | 0.00 | 49 | 1009.1 |
| 20260504181801 | 69 | 41 | 2.0 | 5.0 | 0.00 | 0.00 | 0.00 | 49 | 1009.1 |
| 20260504181702 | 69 | 41 | 2.0 | 5.0 | 0.00 | 0.00 | 0.00 | 49 | 1009.1 |
| 20260504181601 | 69 | 71 | 2.0 | 4.0 | 0.00 | 0.00 | 0.00 | 48 | 1009.1 |
| 20260504181501 | 69 | 71 | 2.0 | 4.0 | 0.00 | 0.00 | 0.00 | 48 | 1009.1 |
| 20260504181401 | 69 | 71 | 2.0 | 4.0 | 0.00 | 0.00 | 0.00 | 48 | 1009.1 |
| 20260504181301 | 69 | 26 | 2.0 | 4.0 | 0.00 | 0.00 | 0.00 | 48 | 1009.1 |
| 20260504181202 | 69 | 26 | 2.0 | 5.0 | 0.00 | 0.00 | 0.00 | 48 | 1009.1 |
| 20260504181101 | 69 | 24 | 2.0 | 7.0 | 0.00 | 0.00 | 0.00 | 48 | 1009.1 |
| 20260504181001 | 69 | 37 | 2.0 | 7.0 | 0.00 | 0.00 | 0.00 | 48 | 1009.1 |
| 20260504180922 | 69 | 37 | 3.0 | 7.0 | 0.00 | 0.00 | 0.00 | 47 | 1009.1 |
| 20260504180901 | 69 | 38 | 3.0 | 7.0 | 0.00 | 0.00 | 0.00 | 47 | 1009.1 |
| 20260504180801 | 69 | 38 | 3.0 | 7.0 | 0.00 | 0.00 | 0.00 | 48 | 1009.1 |
| 20260504180700 | 69 | 35 | 3.0 | 7.0 | 0.00 | 0.00 | 0.00 | 47 | 1009.1 |
| 20260504180600 | 69 | 19 | 3.0 | 7.0 | 0.00 | 0.00 | 0.00 | 47 | 1009.1 |
| 20260504180500 | 69 | 19 | 3.0 | 7.0 | 0.00 | 0.00 | 0.00 | 47 | 1009.1 |
| 20260504180401 | 69 | 22 | 3.0 | 7.0 | 0.00 | 0.00 | 0.00 | 47 | 1009.2 |
| 20260504180300 | 69 | 22 | 3.0 | 7.0 | 0.00 | 0.00 | 0.00 | 47 | 1009.1 |
| 20260504180200 | 69 | 31 | 3.0 | 7.0 | 0.00 | 0.00 | 0.00 | 47 | 1009.1 |
| 20260504180100 | 69 | 19 | 3.0 | 7.0 | 0.00 | 0.00 | 0.00 | 47 | 1009.1 |
| 20260504180001 | 69 | 13 | 3.0 | 7.0 | 0.00 | 0.00 | 0.00 | 46 | 1009.1 |
| 20260504175922 | 69 | 12 | 3.0 | 7.0 | 0.00 | 0.00 | 0.00 | 46 | 1009.1 |
| 20260504175900 | 69 | 19 | 3.0 | 7.0 | 0.00 | 0.00 | 0.00 | 46 | 1009.1 |
| 20260504175800 | 69 | 20 | 3.0 | 7.0 | 0.00 | 0.00 | 0.00 | 47 | 1009.1 |
| 20260504175700 | 69 | 40 | 2.0 | 7.0 | 0.00 | 0.00 | 0.00 | 47 | 1009.1 |
| 20260504175646 | 69 | 43 | 2.0 | 7.0 | 0.00 | 0.00 | 0.00 | 47 | 1009.1 |
| 20260504175636 | 69 | 20 | 2.0 | 7.0 | 0.00 | 0.00 | 0.00 | 46 | 1009.1 |
| 20260504175632 | 69 | 36 | 2.0 | 7.0 | 0.00 | 0.00 | 0.00 | 47 | 1009.1 |
| 20260504175401 | 69 | 5 | 2.0 | 7.0 | 0.00 | 0.00 | 0.00 | 47 | 1009.1 |
| 20260504175301 | 69 | 21 | 3.0 | 7.0 | 0.00 | 0.00 | 0.00 | 47 | 1009.1 |
| 20260504175201 | 70 | 335 | 3.0 | 7.0 | 0.00 | 0.00 | 0.00 | 47 | 1009.1 |
| 20260504175101 | 70 | 24 | 2.0 | 5.0 | 0.00 | 0.00 | 0.00 | 46 | 1009.1 |
| 20260504175002 | 70 | 36 | 2.0 | 5.0 | 0.00 | 0.00 | 0.00 | 46 | 1009.1 |
| 20260504174901 | 70 | 36 | 2.0 | 5.0 | 0.00 | 0.00 | 0.00 | 46 | 1009.1 |
| 20260504174801 | 70 | 36 | 3.0 | 5.0 | 0.00 | 0.00 | 0.00 | 46 | 1009.1 |
| 20260504174701 | 70 | 28 | 2.0 | 5.0 | 0.00 | 0.00 | 0.00 | 46 | 1009.0 |
| 20260504174600 | 70 | 30 | 2.0 | 5.0 | 0.00 | 0.00 | 0.00 | 47 | 1009.0 |
| 20260504174502 | 70 | 30 | 2.0 | 5.0 | 0.00 | 0.00 | 0.00 | 46 | 1009.0 |
| 20260504174401 | 70 | 16 | 2.0 | 5.0 | 0.00 | 0.00 | 0.00 | 46 | 1009.0 |
| 20260504174301 | 70 | 19 | 2.0 | 4.0 | 0.00 | 0.00 | 0.00 | 46 | 1009.0 |
| 20260504174201 | 70 | 36 | 2.0 | 4.0 | 0.00 | 0.00 | 0.00 | 46 | 1009.0 |
| 20260504174101 | 70 | 44 | 2.0 | 4.0 | 0.00 | 0.00 | 0.00 | 45 | 1009.0 |
| 20260504174001 | 70 | 44 | 2.0 | 4.0 | 0.00 | 0.00 | 0.00 | 46 | 1009.0 |
| 20260504173901 | 70 | 44 | 1.0 | 4.0 | 0.00 | 0.00 | 0.00 | 46 | 1009.1 |
| 20260504173801 | 70 | 25 | 1.0 | 4.0 | 0.00 | 0.00 | 0.00 | 45 | 1009.0 |
| 20260504173701 | 70 | 25 | 1.0 | 4.0 | 0.00 | 0.00 | 0.00 | 46 | 1009.0 |
| 20260504173601 | 70 | 26 | 1.0 | 4.0 | 0.00 | 0.00 | 0.00 | 46 | 1009.0 |
| 20260504173501 | 70 | 25 | 1.0 | 4.0 | 0.00 | 0.00 | 0.00 | 45 | 1009.0 |
| 20260504173400 | 70 | 86 | 1.0 | 3.0 | 0.00 | 0.00 | 0.00 | 46 | 1009.0 |
| 20260504173301 | 70 | 87 | 1.0 | 3.0 | 0.00 | 0.00 | 0.00 | 46 | 1009.0 |
| 20260504173201 | 70 | 87 | 1.0 | 2.0 | 0.00 | 0.00 | 0.00 | 46 | 1009.0 |
| 20260504173100 | 70 | 88 | 1.0 | 2.0 | 0.00 | 0.00 | 0.00 | 47 | 1009.0 |
| 20260504173001 | 70 | 88 | 1.0 | 2.0 | 0.00 | 0.00 | 0.00 | 46 | 1009.0 |
| 20260504172900 | 70 | 88 | 1.0 | 2.0 | 0.00 | 0.00 | 0.00 | 46 | 1009.0 |
| 20260504172801 | 70 | 87 | 1.0 | 2.0 | 0.00 | 0.00 | 0.00 | 46 | 1009.0 |
| 20260504172700 | 70 | 87 | 1.0 | 2.0 | 0.00 | 0.00 | 0.00 | 46 | 1009.0 |
| 20260504172601 | 70 | 87 | 1.0 | 2.0 | 0.00 | 0.00 | 0.00 | 46 | 1009.0 |
| 20260504172501 | 71 | 87 | 1.0 | 2.0 | 0.00 | 0.00 | 0.00 | 49 | 1008.9 |
| 20260504172419 | 71 | 87 | 1.0 | 2.0 | 0.00 | 0.00 | 0.00 | 49 | 1008.9 |
| 20260504172401 | 71 | 87 | 1.0 | 2.0 | 0.00 | 0.00 | 0.00 | 48 | 1008.9 |
| 20260504172303 | 71 | 87 | 1.0 | 2.0 | 0.00 | 0.00 | 0.00 | 48 | 1009.0 |
| 20260504172201 | 71 | 87 | 0.0 | 2.0 | 0.00 | 0.00 | 0.00 | 47 | 1009.0 |
| 20260504172143 | 71 | 87 | 0.0 | 2.0 | 0.00 | 0.00 | 0.00 | 47 | 1009.0 |
| 20260504172135 | 71 | 87 | 0.0 | 2.0 | 0.00 | 0.00 | 0.00 | 47 | 1009.0 |
| 20260504172130 | 71 | 87 | 0.0 | 2.0 | 0.00 | 0.00 | 0.00 | 47 | 1009.0 |
| 20260504171901 | 71 | 87 | 0.0 | 2.0 | 0.00 | 0.00 | 0.00 | 46 | 1009.0 |
| 20260504171800 | 71 | 87 | 1.0 | 3.0 | 0.00 | 0.00 | 0.00 | 46 | 1009.0 |
| 20260504171701 | 71 | 87 | 1.0 | 3.0 | 0.00 | 0.00 | 0.00 | 47 | 1009.0 |
| 20260504171601 | 71 | 87 | 1.0 | 3.0 | 0.00 | 0.00 | 0.00 | 47 | 1009.0 |
| 20260504171501 | 71 | 87 | 1.0 | 3.0 | 0.00 | 0.00 | 0.00 | 46 | 1009.0 |
| 20260504171401 | 71 | 87 | 1.0 | 3.0 | 0.00 | 0.00 | 0.00 | 46 | 1009.0 |
| 20260504171301 | 71 | 87 | 1.0 | 3.0 | 0.00 | 0.00 | 0.00 | 46 | 1009.0 |
| 20260504171201 | 71 | 87 | 1.0 | 3.0 | 0.00 | 0.00 | 0.00 | 46 | 1009.0 |
| 20260504171101 | 71 | 87 | 1.0 | 3.0 | 0.00 | 0.00 | 0.00 | 45 | 1009.1 |
| 20260504171001 | 71 | 87 | 1.0 | 3.0 | 0.00 | 0.00 | 0.00 | 45 | 1009.0 |
| 20260504170901 | 71 | 87 | 1.0 | 3.0 | 0.00 | 0.00 | 0.00 | 46 | 1009.0 |
| 20260504170801 | 71 | 88 | 0.0 | 3.0 | 0.00 | 0.00 | 0.00 | 47 | 1009.1 |
| 20260504170658 | 71 | 88 | 0.0 | 3.0 | 0.00 | 0.00 | 0.00 | 47 | 1009.1 |
| 20260504170558 | 71 | 89 | 0.0 | 2.0 | 0.00 | 0.00 | 0.00 | 48 | 1009.0 |
| 20260504170458 | 71 | 98 | 0.0 | 0.0 | 0.00 | 0.00 | 0.00 | 47 | 1009.0 |
| 20260504170418 | 71 | 98 | 0.0 | 0.0 | 0.00 | 0.00 | 0.00 | 46 | 1009.1 |
| 20260504170358 | 71 | 98 | 0.0 | 1.0 | 0.00 | 0.00 | 0.00 | 46 | 1009.1 |
| 20260504170257 | 71 | 98 | 0.0 | 1.0 | 0.00 | 0.00 | 0.00 | 46 | 1009.1 |
| 20260504170156 | 71 | 98 | 0.0 | 1.0 | 0.00 | 0.00 | 0.00 | 45 | 1009.1 |
| 20260504160402 | 71 | 101 | 1.0 | 4.0 | 0.00 | 0.00 | 0.00 | 42 | 1009.1 |
| 20260504160325 | 71 | 101 | 1.0 | 4.0 | 0.00 | 0.00 | 0.00 | 42 | 1009.1 |
| 20260504160224 | 71 | 103 | 1.0 | 4.0 | 0.00 | 0.00 | 0.00 | 43 | 1009.1 |
| 20260504160122 | 71 | 103 | 1.0 | 4.0 | 0.00 | 0.00 | 0.00 | 46 | 1009.1 |
| 20260504151117 | 74 | 215 | 1.0 | 4.0 | 0.00 | 0.00 | 0.00 | 41 | 1009.2 |
| 20260504151113 | 74 | 80 | 1.0 | 4.0 | 0.00 | 0.00 | 0.00 | 40 | 1009.2 |
| 20260504150758 | 74 | 80 | 1.0 | 4.0 | 0.00 | 0.00 | 0.00 | 41 | 1009.2 |
| 20260504150655 | 74 | 81 | 1.0 | 4.0 | 0.00 | 0.00 | 0.00 | 40 | 1009.2 |
| 20260504150555 | 74 | 81 | 1.0 | 4.0 | 0.00 | 0.00 | 0.00 | 41 | 1009.2 |
| 20260504150456 | 74 | 81 | 1.0 | 4.0 | 0.00 | 0.00 | 0.00 | 42 | 1009.2 |
| 20260504150400 | 74 | 81 | 1.0 | 4.0 | 0.00 | 0.00 | 0.00 | 40 | 1009.2 |
| 20260504150355 | 74 | 81 | 1.0 | 4.0 | 0.00 | 0.00 | 0.00 | 40 | 1009.2 |
| 20260504150256 | 74 | 81 | 1.0 | 4.0 | 0.00 | 0.00 | 0.00 | 41 | 1009.2 |
| 20260504150154 | 74 | 80 | 1.0 | 4.0 | 0.00 | 0.00 | 0.00 | 41 | 1009.2 |
| 20260504141328 | 75 | 86 | 2.0 | 7.0 | 0.00 | 0.00 | 0.00 | 40 | 1009.5 |
| 20260504141229 | 75 | 53 | 2.0 | 7.0 | 0.00 | 0.00 | 0.00 | 40 | 1009.5 |
| 20260504141129 | 75 | 53 | 2.0 | 7.0 | 0.00 | 0.00 | 0.00 | 41 | 1009.5 |
| 20260504141029 | 75 | 53 | 2.0 | 7.0 | 0.00 | 0.00 | 0.00 | 42 | 1009.5 |
| 20260504140929 | 75 | 40 | 2.0 | 7.0 | 0.00 | 0.00 | 0.00 | 42 | 1009.5 |
| 20260504140900 | 74 | 41 | 2.0 | 7.0 | 0.00 | 0.00 | 0.00 | 42 | 1009.5 |
| 20260504140828 | 74 | 41 | 2.0 | 7.0 | 0.00 | 0.00 | 0.00 | 42 | 1009.6 |
| 20260504140726 | 74 | 14 | 2.0 | 7.0 | 0.00 | 0.00 | 0.00 | 40 | 1009.6 |
| 20260504140626 | 74 | 14 | 2.0 | 7.0 | 0.00 | 0.00 | 0.00 | 42 | 1009.6 |
| 20260504140526 | 74 | 10 | 2.0 | 7.0 | 0.00 | 0.00 | 0.00 | 42 | 1009.7 |
| 20260504140426 | 74 | 9 | 2.0 | 7.0 | 0.00 | 0.00 | 0.00 | 41 | 1009.6 |
| 20260504140400 | 74 | 9 | 2.0 | 7.0 | 0.00 | 0.00 | 0.00 | 42 | 1009.6 |
| 20260504140322 | 74 | 0 | 2.0 | 6.0 | 0.00 | 0.00 | 0.00 | 41 | 1009.7 |
| 20260504140221 | 74 | 9 | 2.0 | 6.0 | 0.00 | 0.00 | 0.00 | 41 | 1009.6 |
| 20260504140121 | 74 | 11 | 2.0 | 6.0 | 0.00 | 0.00 | 0.00 | 41 | 1009.7 |
| 20260504130800 | 71 | 0 | 2.0 | 5.0 | 0.00 | 0.00 | 0.00 | 47 | 1010.0 |
| 20260504130700 | 71 | 56 | 2.0 | 4.0 | 0.00 | 0.00 | 0.00 | 44 | 1010.0 |
| 20260504130600 | 71 | 113 | 2.0 | 4.0 | 0.00 | 0.00 | 0.00 | 43 | 1010.0 |
| 20260504130500 | 71 | 63 | 2.0 | 4.0 | 0.00 | 0.00 | 0.00 | 45 | 1010.1 |
| 20260504130400 | 71 | 11 | 2.0 | 4.0 | 0.00 | 0.00 | 0.00 | 46 | 1010.1 |
| 20260504130356 | 71 | 11 | 2.0 | 4.0 | 0.00 | 0.00 | 0.00 | 46 | 1010.1 |
| 20260504130300 | 71 | 11 | 2.0 | 4.0 | 0.00 | 0.00 | 0.00 | 46 | 1010.1 |
| 20260504130201 | 71 | 52 | 1.0 | 4.0 | 0.00 | 0.00 | 0.00 | 43 | 1010.1 |
| 20260504120239 | 72 | 94 | 2.0 | 8.0 | 0.00 | 0.00 | 0.00 | 42 | 1010.4 |
| 20260504120139 | 72 | 94 | 3.0 | 8.0 | 0.00 | 0.00 | 0.00 | 44 | 1010.4 |
| 20260504110630 | 70 | 58 | 4.0 | 12.0 | 0.00 | 0.00 | 0.00 | 46 | 1010.8 |
| 20260504110530 | 70 | 91 | 4.0 | 12.0 | 0.00 | 0.00 | 0.00 | 45 | 1010.8 |
| 20260504110429 | 70 | 121 | 4.0 | 12.0 | 0.00 | 0.00 | 0.00 | 47 | 1010.8 |
| 20260504110353 | 70 | 119 | 4.0 | 12.0 | 0.00 | 0.00 | 0.00 | 47 | 1010.8 |
| 20260504110329 | 70 | 83 | 4.0 | 12.0 | 0.00 | 0.00 | 0.00 | 47 | 1010.8 |
| 20260504110229 | 70 | 57 | 4.0 | 12.0 | 0.00 | 0.00 | 0.00 | 46 | 1010.8 |
| 20260504110129 | 70 | 84 | 4.0 | 12.0 | 0.00 | 0.00 | 0.00 | 46 | 1010.8 |
| 20260504100608 | 69 | 117 | 3.0 | 9.0 | 0.00 | 0.00 | 0.00 | 47 | 1011.5 |
| 20260504100602 | 69 | 95 | 3.0 | 9.0 | 0.00 | 0.00 | 0.00 | 48 | 1011.5 |
| 20260504100558 | 69 | 171 | 3.0 | 9.0 | 0.00 | 0.00 | 0.00 | 47 | 1011.5 |
| 20260504100317 | 69 | 106 | 3.0 | 9.0 | 0.00 | 0.00 | 0.00 | 47 | 1011.5 |
| 20260504100217 | 69 | 108 | 3.0 | 9.0 | 0.00 | 0.00 | 0.00 | 49 | 1011.6 |
| 20260504100117 | 69 | 118 | 3.0 | 9.0 | 0.00 | 0.00 | 0.00 | 47 | 1011.5 |
| 20260504082002 | 63 | 91 | 1.0 | 4.0 | 0.00 | 0.00 | 0.00 | 54 | 1012.6 |
| 20260504081901 | 63 | 91 | 1.0 | 4.0 | 0.00 | 0.00 | 0.00 | 54 | 1012.6 |
| 20260504081801 | 63 | 91 | 1.0 | 4.0 | 0.00 | 0.00 | 0.00 | 57 | 1012.6 |
| 20260504081701 | 63 | 95 | 2.0 | 4.0 | 0.00 | 0.00 | 0.00 | 56 | 1012.6 |
| 20260504081600 | 63 | 95 | 2.0 | 4.0 | 0.00 | 0.00 | 0.00 | 55 | 1012.6 |
| 20260504081500 | 63 | 89 | 2.0 | 4.0 | 0.00 | 0.00 | 0.00 | 56 | 1012.6 |
| 20260504081400 | 63 | 81 | 1.0 | 4.0 | 0.00 | 0.00 | 0.00 | 54 | 1012.6 |
| 20260504081329 | 63 | 115 | 1.0 | 4.0 | 0.00 | 0.00 | 0.00 | 54 | 1012.6 |
| 20260504081300 | 63 | 117 | 1.0 | 4.0 | 0.00 | 0.00 | 0.00 | 56 | 1012.6 |
| 20260504081200 | 63 | 73 | 1.0 | 4.0 | 0.00 | 0.00 | 0.00 | 57 | 1012.6 |
| 20260504081057 | 63 | 76 | 1.0 | 4.0 | 0.00 | 0.00 | 0.00 | 57 | 1012.6 |
| 20260504080957 | 63 | 89 | 1.0 | 4.0 | 0.00 | 0.00 | 0.00 | 55 | 1012.7 |
| 20260504080857 | 62 | 78 | 1.0 | 4.0 | 0.00 | 0.00 | 0.00 | 56 | 1012.6 |
| 20260504080829 | 62 | 65 | 1.0 | 4.0 | 0.00 | 0.00 | 0.00 | 56 | 1012.7 |
| 20260504080757 | 62 | 133 | 1.0 | 4.0 | 0.00 | 0.00 | 0.00 | 57 | 1012.7 |
| 20260504080656 | 62 | 132 | 1.0 | 4.0 | 0.00 | 0.00 | 0.00 | 57 | 1012.7 |
| 20260504080551 | 62 | 129 | 1.0 | 4.0 | 0.00 | 0.00 | 0.00 | 56 | 1012.7 |
| 20260504080451 | 62 | 129 | 1.0 | 4.0 | 0.00 | 0.00 | 0.00 | 58 | 1012.7 |
| 20260504080333 | 62 | 129 | 1.0 | 4.0 | 0.00 | 0.00 | 0.00 | 58 | 1012.7 |
| 20260504080251 | 62 | 129 | 1.0 | 4.0 | 0.00 | 0.00 | 0.00 | 59 | 1012.7 |
| 20260504080151 | 62 | 129 | 1.0 | 4.0 | 0.00 | 0.00 | 0.00 | 58 | 1012.7 |
| 20260504070329 | 61 | 243 | 0.0 | 5.0 | 0.00 | 0.00 | 0.00 | 62 | 1012.9 |
| 20260504070321 | 60 | 243 | 0.0 | 5.0 | 0.00 | 0.00 | 0.00 | 62 | 1012.9 |
| 20260504070220 | 61 | 108 | 0.0 | 2.0 | 0.00 | 0.00 | 0.00 | 61 | 1012.8 |
| 20260504070121 | 60 | 108 | 0.0 | 2.0 | 0.00 | 0.00 | 0.00 | 61 | 1012.8 |
| 20260504060248 | 55 | 92 | 1.0 | 2.0 | 0.00 | 0.00 | 0.00 | 73 | 1012.8 |
| 20260504060143 | 55 | 92 | 1.0 | 3.0 | 0.00 | 0.00 | 0.00 | 72 | 1012.8 |
| 20260504050729 | 52 | 113 | 1.0 | 6.0 | 0.00 | 0.00 | 0.00 | 75 | 1012.7 |
| 20260504050629 | 52 | 113 | 1.0 | 6.0 | 0.00 | 0.00 | 0.00 | 75 | 1012.7 |
| 20260504050528 | 52 | 129 | 1.0 | 6.0 | 0.00 | 0.00 | 0.00 | 75 | 1012.7 |
| 20260504050428 | 52 | 113 | 1.0 | 3.0 | 0.00 | 0.00 | 0.00 | 76 | 1012.7 |
| 20260504050329 | 52 | 111 | 1.0 | 3.0 | 0.00 | 0.00 | 0.00 | 76 | 1012.7 |
| 20260504050301 | 52 | 92 | 1.0 | 3.0 | 0.00 | 0.00 | 0.00 | 76 | 1012.7 |
| 20260504050229 | 52 | 90 | 1.0 | 3.0 | 0.00 | 0.00 | 0.00 | 76 | 1012.7 |
| 20260504050129 | 52 | 90 | 1.0 | 3.0 | 0.00 | 0.00 | 0.00 | 76 | 1012.7 |
| 20260504045929 | 51 | 90 | 1.0 | 3.0 | 0.00 | 0.00 | 0.00 | 76 | 1012.7 |
| 20260504045829 | 51 | 103 | 1.0 | 3.0 | 0.00 | 0.00 | 0.00 | 76 | 1012.7 |
| 20260504045801 | 51 | 79 | 1.0 | 3.0 | 0.00 | 0.00 | 0.00 | 76 | 1012.7 |
| 20260504045728 | 51 | 79 | 1.0 | 3.0 | 0.00 | 0.00 | 0.00 | 77 | 1012.7 |
| 20260504045628 | 51 | 109 | 1.0 | 2.0 | 0.00 | 0.00 | 0.00 | 76 | 1012.7 |
| 20260504045533 | 51 | 109 | 1.0 | 3.0 | 0.00 | 0.00 | 0.00 | 76 | 1012.7 |
| 20260504045429 | 51 | 109 | 1.0 | 3.0 | 0.00 | 0.00 | 0.00 | 77 | 1012.8 |
| 20260504045329 | 51 | 112 | 1.0 | 3.0 | 0.00 | 0.00 | 0.00 | 76 | 1012.8 |
| 20260504045300 | 51 | 113 | 1.0 | 3.0 | 0.00 | 0.00 | 0.00 | 76 | 1012.8 |
| 20260504045229 | 51 | 113 | 1.0 | 3.0 | 0.00 | 0.00 | 0.00 | 76 | 1012.8 |
| 20260504045133 | 51 | 113 | 1.0 | 3.0 | 0.00 | 0.00 | 0.00 | 76 | 1012.8 |
| 20260504045029 | 51 | 113 | 1.0 | 3.0 | 0.00 | 0.00 | 0.00 | 76 | 1012.8 |
| 20260504044929 | 51 | 113 | 1.0 | 3.0 | 0.00 | 0.00 | 0.00 | 76 | 1012.8 |
| 20260504044801 | 51 | 113 | 1.0 | 3.0 | 0.00 | 0.00 | 0.00 | 76 | 1012.9 |
| 20260504044728 | 51 | 113 | 1.0 | 3.0 | 0.00 | 0.00 | 0.00 | 76 | 1012.9 |
| 20260504044630 | 51 | 114 | 1.0 | 3.0 | 0.00 | 0.00 | 0.00 | 76 | 1012.9 |
| 20260504044528 | 51 | 112 | 1.0 | 3.0 | 0.00 | 0.00 | 0.00 | 76 | 1012.8 |
| 20260504044428 | 51 | 115 | 1.0 | 3.0 | 0.00 | 0.00 | 0.00 | 77 | 1012.8 |
| 20260504044329 | 51 | 115 | 1.0 | 3.0 | 0.00 | 0.00 | 0.00 | 76 | 1012.8 |
| 20260504044300 | 51 | 113 | 1.0 | 3.0 | 0.00 | 0.00 | 0.00 | 76 | 1012.8 |
| 20260504044229 | 51 | 117 | 1.0 | 3.0 | 0.00 | 0.00 | 0.00 | 76 | 1012.8 |
| 20260504044129 | 51 | 107 | 1.0 | 3.0 | 0.00 | 0.00 | 0.00 | 76 | 1012.8 |
| 20260504044029 | 51 | 107 | 1.0 | 3.0 | 0.00 | 0.00 | 0.00 | 77 | 1012.8 |
| 20260504043929 | 51 | 96 | 0.0 | 3.0 | 0.00 | 0.00 | 0.00 | 76 | 1012.8 |
| 20260504043801 | 51 | 92 | 0.0 | 2.0 | 0.00 | 0.00 | 0.00 | 76 | 1012.8 |
| 20260504043728 | 51 | 92 | 0.0 | 2.0 | 0.00 | 0.00 | 0.00 | 76 | 1012.8 |
| 20260504043628 | 51 | 92 | 0.0 | 1.0 | 0.00 | 0.00 | 0.00 | 76 | 1012.8 |
| 20260504043528 | 51 | 92 | 0.0 | 1.0 | 0.00 | 0.00 | 0.00 | 76 | 1012.8 |
| 20260504043428 | 51 | 92 | 0.0 | 2.0 | 0.00 | 0.00 | 0.00 | 76 | 1012.8 |
| 20260504043300 | 51 | 92 | 0.0 | 2.0 | 0.00 | 0.00 | 0.00 | 76 | 1012.8 |
| 20260504043228 | 51 | 92 | 0.0 | 2.0 | 0.00 | 0.00 | 0.00 | 76 | 1012.8 |
| 20260504043129 | 51 | 92 | 0.0 | 3.0 | 0.00 | 0.00 | 0.00 | 76 | 1012.8 |
| 20260504043029 | 51 | 92 | 1.0 | 3.0 | 0.00 | 0.00 | 0.00 | 76 | 1012.8 |
| 20260504042929 | 51 | 92 | 1.0 | 3.0 | 0.00 | 0.00 | 0.00 | 76 | 1012.8 |
| 20260504042800 | 51 | 92 | 1.0 | 3.0 | 0.00 | 0.00 | 0.00 | 76 | 1012.8 |
| 20260504042729 | 51 | 92 | 1.0 | 3.0 | 0.00 | 0.00 | 0.00 | 76 | 1012.8 |
| 20260504042628 | 51 | 92 | 1.0 | 3.0 | 0.00 | 0.00 | 0.00 | 76 | 1012.8 |
| 20260504042529 | 51 | 92 | 1.0 | 3.0 | 0.00 | 0.00 | 0.00 | 76 | 1012.8 |
| 20260504042428 | 51 | 92 | 1.0 | 3.0 | 0.00 | 0.00 | 0.00 | 76 | 1012.8 |
| 20260504042301 | 51 | 91 | 1.0 | 3.0 | 0.00 | 0.00 | 0.00 | 75 | 1012.8 |
| 20260504042228 | 51 | 91 | 1.0 | 3.0 | 0.00 | 0.00 | 0.00 | 76 | 1012.8 |
| 20260504042129 | 51 | 85 | 0.0 | 2.0 | 0.00 | 0.00 | 0.00 | 75 | 1012.8 |
| 20260504042029 | 51 | 83 | 0.0 | 2.0 | 0.00 | 0.00 | 0.00 | 75 | 1012.8 |
| 20260504041928 | 51 | 82 | 0.0 | 2.0 | 0.00 | 0.00 | 0.00 | 75 | 1012.8 |
| 20260504041801 | 51 | 81 | 0.0 | 2.0 | 0.00 | 0.00 | 0.00 | 75 | 1012.8 |
| 20260504041728 | 51 | 80 | 0.0 | 3.0 | 0.00 | 0.00 | 0.00 | 75 | 1012.8 |
| 20260504041628 | 51 | 80 | 0.0 | 3.0 | 0.00 | 0.00 | 0.00 | 75 | 1012.8 |
| 20260504041528 | 51 | 80 | 0.0 | 3.0 | 0.00 | 0.00 | 0.00 | 75 | 1012.9 |
| 20260504041429 | 51 | 80 | 1.0 | 3.0 | 0.00 | 0.00 | 0.00 | 75 | 1012.9 |
| 20260504041300 | 51 | 80 | 1.0 | 3.0 | 0.00 | 0.00 | 0.00 | 75 | 1012.8 |
| 20260504041229 | 51 | 80 | 1.0 | 3.0 | 0.00 | 0.00 | 0.00 | 75 | 1012.9 |
| 20260504041128 | 51 | 80 | 1.0 | 3.0 | 0.00 | 0.00 | 0.00 | 75 | 1012.9 |
| 20260504041028 | 51 | 80 | 1.0 | 3.0 | 0.00 | 0.00 | 0.00 | 75 | 1012.8 |
| 20260504040928 | 51 | 80 | 1.0 | 3.0 | 0.00 | 0.00 | 0.00 | 75 | 1012.8 |
| 20260504040800 | 51 | 80 | 0.0 | 3.0 | 0.00 | 0.00 | 0.00 | 75 | 1012.9 |
| 20260504040729 | 51 | 78 | 0.0 | 3.0 | 0.00 | 0.00 | 0.00 | 75 | 1012.8 |
| 20260504040629 | 51 | 92 | 0.0 | 2.0 | 0.00 | 0.00 | 0.00 | 74 | 1012.9 |
| 20260504040528 | 51 | 103 | 0.0 | 2.0 | 0.00 | 0.00 | 0.00 | 75 | 1012.8 |
| 20260504040428 | 51 | 94 | 0.0 | 2.0 | 0.00 | 0.00 | 0.00 | 75 | 1012.9 |
| 20260504040328 | 51 | 90 | 0.0 | 2.0 | 0.00 | 0.00 | 0.00 | 75 | 1012.9 |
| 20260504040301 | 51 | 88 | 0.0 | 2.0 | 0.00 | 0.00 | 0.00 | 74 | 1012.9 |
| 20260504040228 | 51 | 88 | 0.0 | 2.0 | 0.00 | 0.00 | 0.00 | 74 | 1012.9 |
| 20260504040129 | 51 | 88 | 0.0 | 3.0 | 0.00 | 0.00 | 0.00 | 74 | 1012.9 |
| 20260504040028 | 51 | 88 | 0.0 | 3.0 | 0.00 | 0.00 | 0.00 | 74 | 1012.9 |
| 20260504035928 | 51 | 88 | 0.0 | 3.0 | 0.00 | 0.00 | 0.00 | 74 | 1012.9 |
| 20260504035800 | 51 | 88 | 0.0 | 3.0 | 0.00 | 0.00 | 0.00 | 74 | 1012.9 |
| 20260504035729 | 51 | 88 | 0.0 | 3.0 | 0.00 | 0.00 | 0.00 | 74 | 1012.9 |
| 20260504035629 | 52 | 89 | 0.0 | 3.0 | 0.00 | 0.00 | 0.00 | 74 | 1013.0 |
| 20260504035528 | 52 | 86 | 1.0 | 3.0 | 0.00 | 0.00 | 0.00 | 74 | 1012.9 |
| 20260504035428 | 52 | 85 | 1.0 | 3.0 | 0.00 | 0.00 | 0.00 | 74 | 1012.9 |
| 20260504035328 | 52 | 86 | 1.0 | 3.0 | 0.00 | 0.00 | 0.00 | 74 | 1012.9 |
| 20260504035301 | 52 | 85 | 1.0 | 3.0 | 0.00 | 0.00 | 0.00 | 74 | 1012.9 |
| 20260504035228 | 52 | 85 | 0.0 | 3.0 | 0.00 | 0.00 | 0.00 | 74 | 1012.9 |
| 20260504035128 | 52 | 106 | 0.0 | 2.0 | 0.00 | 0.00 | 0.00 | 74 | 1013.0 |
| 20260504035029 | 52 | 106 | 0.0 | 2.0 | 0.00 | 0.00 | 0.00 | 74 | 1013.0 |
| 20260504035016 | 52 | 104 | 0.0 | 2.0 | 0.00 | 0.00 | 0.00 | 74 | 1013.0 |
| 20260504035011 | 52 | 104 | 0.0 | 2.0 | 0.00 | 0.00 | 0.00 | 73 | 1013.0 |
| 20260504034729 | 52 | 104 | 1.0 | 2.0 | 0.00 | 0.00 | 0.00 | 73 | 1013.0 |
| 20260504034629 | 52 | 104 | 0.0 | 2.0 | 0.00 | 0.00 | 0.00 | 73 | 1013.1 |
| 20260504034600 | 52 | 105 | 0.0 | 2.0 | 0.00 | 0.00 | 0.00 | 73 | 1013.1 |
| 20260504034429 | 52 | 105 | 0.0 | 2.0 | 0.00 | 0.00 | 0.00 | 73 | 1013.1 |
| 20260504034300 | 52 | 105 | 0.0 | 2.0 | 0.00 | 0.00 | 0.00 | 73 | 1013.0 |
| 20260504034228 | 52 | 105 | 0.0 | 2.0 | 0.00 | 0.00 | 0.00 | 73 | 1013.0 |
| 20260504034128 | 52 | 104 | 0.0 | 2.0 | 0.00 | 0.00 | 0.00 | 73 | 1013.1 |
| 20260504034028 | 52 | 105 | 0.0 | 2.0 | 0.00 | 0.00 | 0.00 | 73 | 1013.1 |
| 20260504033928 | 52 | 105 | 0.0 | 2.0 | 0.00 | 0.00 | 0.00 | 73 | 1013.0 |
| 20260504033800 | 52 | 105 | 0.0 | 2.0 | 0.00 | 0.00 | 0.00 | 73 | 1013.1 |
| 20260504033753 | 53 | 105 | 1.0 | 3.0 | 0.00 | 0.00 | 0.00 | 72 | 1013.0 |
| 20260504033748 | 52 | 105 | 0.0 | 2.0 | 0.00 | 0.00 | 0.00 | 73 | 1013.0 |
| 20260504033744 | 53 | 105 | 0.0 | 2.0 | 0.00 | 0.00 | 0.00 | 73 | 1013.0 |
| 20260504033736 | 53 | 105 | 0.0 | 2.0 | 0.00 | 0.00 | 0.00 | 73 | 1013.0 |
| 20260504033517 | 53 | 105 | 0.0 | 2.0 | 0.00 | 0.00 | 0.00 | 73 | 1013.0 |
| 20260504033512 | 53 | 105 | 1.0 | 3.0 | 0.00 | 0.00 | 0.00 | 73 | 1013.0 |
| 20260504033228 | 53 | 105 | 1.0 | 3.0 | 0.00 | 0.00 | 0.00 | 72 | 1013.0 |
| 20260504033128 | 53 | 105 | 1.0 | 3.0 | 0.00 | 0.00 | 0.00 | 72 | 1013.0 |
| 20260504033029 | 53 | 105 | 1.0 | 3.0 | 0.00 | 0.00 | 0.00 | 72 | 1013.0 |
| 20260504033016 | 53 | 105 | 1.0 | 3.0 | 0.00 | 0.00 | 0.00 | 72 | 1013.0 |
| 20260504033011 | 53 | 105 | 1.0 | 3.0 | 0.00 | 0.00 | 0.00 | 72 | 1013.0 |
| 20260504032728 | 53 | 105 | 1.0 | 3.0 | 0.00 | 0.00 | 0.00 | 72 | 1013.0 |
| 20260504032628 | 53 | 105 | 1.0 | 3.0 | 0.00 | 0.00 | 0.00 | 72 | 1013.0 |
| 20260504032528 | 53 | 105 | 1.0 | 3.0 | 0.00 | 0.00 | 0.00 | 72 | 1013.0 |
| 20260504032428 | 53 | 105 | 1.0 | 3.0 | 0.00 | 0.00 | 0.00 | 72 | 1013.0 |
| 20260504032329 | 53 | 109 | 1.0 | 3.0 | 0.00 | 0.00 | 0.00 | 72 | 1013.0 |
| 20260504032300 | 53 | 105 | 1.0 | 3.0 | 0.00 | 0.00 | 0.00 | 72 | 1013.0 |
| 20260504032229 | 53 | 102 | 1.0 | 3.0 | 0.00 | 0.00 | 0.00 | 72 | 1013.0 |
| 20260504032129 | 53 | 102 | 1.0 | 3.0 | 0.00 | 0.00 | 0.00 | 72 | 1013.0 |
| 20260504032029 | 53 | 98 | 1.0 | 3.0 | 0.00 | 0.00 | 0.00 | 72 | 1013.0 |
| 20260504031929 | 53 | 97 | 1.0 | 2.0 | 0.00 | 0.00 | 0.00 | 72 | 1013.0 |
| 20260504031800 | 53 | 97 | 0.0 | 2.0 | 0.00 | 0.00 | 0.00 | 72 | 1013.0 |
| 20260504031728 | 53 | 96 | 0.0 | 2.0 | 0.00 | 0.00 | 0.00 | 72 | 1013.0 |
| 20260504031628 | 53 | 96 | 1.0 | 2.0 | 0.00 | 0.00 | 0.00 | 72 | 1013.0 |
| 20260504031528 | 53 | 96 | 0.0 | 2.0 | 0.00 | 0.00 | 0.00 | 72 | 1013.0 |
| 20260504031428 | 53 | 97 | 0.0 | 2.0 | 0.00 | 0.00 | 0.00 | 72 | 1013.0 |
| 20260504031302 | 53 | 96 | 1.0 | 2.0 | 0.00 | 0.00 | 0.00 | 72 | 1013.0 |
| 20260504031229 | 53 | 96 | 1.0 | 2.0 | 0.00 | 0.00 | 0.00 | 72 | 1013.0 |
| 20260504031129 | 53 | 96 | 0.0 | 2.0 | 0.00 | 0.00 | 0.00 | 72 | 1013.0 |
| 20260504031029 | 53 | 96 | 0.0 | 2.0 | 0.00 | 0.00 | 0.00 | 72 | 1013.0 |
| 20260504030929 | 53 | 96 | 0.0 | 2.0 | 0.00 | 0.00 | 0.00 | 72 | 1013.0 |
| 20260504030801 | 53 | 96 | 0.0 | 2.0 | 0.00 | 0.00 | 0.00 | 72 | 1013.0 |
| 20260504030730 | 53 | 96 | 0.0 | 2.0 | 0.00 | 0.00 | 0.00 | 72 | 1012.9 |
| 20260504030629 | 53 | 96 | 0.0 | 2.0 | 0.00 | 0.00 | 0.00 | 72 | 1013.0 |
| 20260504030529 | 53 | 96 | 0.0 | 2.0 | 0.00 | 0.00 | 0.00 | 72 | 1013.0 |
| 20260504030429 | 53 | 96 | 0.0 | 2.0 | 0.00 | 0.00 | 0.00 | 72 | 1013.1 |
| 20260504030301 | 53 | 96 | 0.0 | 2.0 | 0.00 | 0.00 | 0.00 | 72 | 1013.1 |
| 20260504030229 | 53 | 96 | 0.0 | 2.0 | 0.00 | 0.00 | 0.00 | 72 | 1013.1 |
| 20260504030129 | 53 | 96 | 0.0 | 2.0 | 0.00 | 0.00 | 0.00 | 72 | 1013.1 |
| 20260504030033 | 53 | 96 | 0.0 | 2.0 | 0.00 | 0.00 | 0.00 | 73 | 1013.1 |
| 20260504025929 | 53 | 96 | 0.0 | 2.0 | 0.00 | 0.00 | 0.00 | 72 | 1013.1 |
| 20260504025829 | 53 | 96 | 0.0 | 2.0 | 0.00 | 0.00 | 0.00 | 72 | 1013.1 |
| 20260504025801 | 53 | 96 | 0.0 | 2.0 | 0.00 | 0.00 | 0.00 | 73 | 1013.1 |
| 20260504025729 | 53 | 101 | 1.0 | 2.0 | 0.00 | 0.00 | 0.00 | 73 | 1013.1 |
| 20260504025629 | 53 | 100 | 1.0 | 2.0 | 0.00 | 0.00 | 0.00 | 73 | 1013.1 |
| 20260504025530 | 53 | 100 | 1.0 | 3.0 | 0.00 | 0.00 | 0.00 | 73 | 1013.1 |
| 20260504025429 | 53 | 100 | 1.0 | 3.0 | 0.00 | 0.00 | 0.00 | 73 | 1013.0 |
| 20260504025301 | 53 | 100 | 1.0 | 3.0 | 0.00 | 0.00 | 0.00 | 73 | 1013.1 |
| 20260504025251 | 53 | 98 | 1.0 | 3.0 | 0.00 | 0.00 | 0.00 | 73 | 1013.1 |
| 20260504025243 | 53 | 100 | 1.0 | 3.0 | 0.00 | 0.00 | 0.00 | 73 | 1013.1 |
| 20260504025239 | 53 | 100 | 1.0 | 3.0 | 0.00 | 0.00 | 0.00 | 73 | 1013.1 |
| 20260504025235 | 53 | 100 | 1.0 | 3.0 | 0.00 | 0.00 | 0.00 | 73 | 1013.1 |
| 20260504025015 | 53 | 100 | 1.0 | 3.0 | 0.00 | 0.00 | 0.00 | 73 | 1013.1 |
| 20260504025011 | 53 | 98 | 1.0 | 3.0 | 0.00 | 0.00 | 0.00 | 73 | 1013.1 |
| 20260504024728 | 53 | 98 | 1.0 | 3.0 | 0.00 | 0.00 | 0.00 | 73 | 1013.1 |
| 20260504024628 | 53 | 98 | 1.0 | 3.0 | 0.00 | 0.00 | 0.00 | 73 | 1013.1 |
| 20260504024529 | 53 | 105 | 1.0 | 2.0 | 0.00 | 0.00 | 0.00 | 73 | 1013.0 |
| 20260504024428 | 53 | 106 | 1.0 | 2.0 | 0.00 | 0.00 | 0.00 | 73 | 1013.1 |
| 20260504024327 | 53 | 106 | 1.0 | 2.0 | 0.00 | 0.00 | 0.00 | 73 | 1013.0 |
| 20260504024302 | 53 | 107 | 1.0 | 2.0 | 0.00 | 0.00 | 0.00 | 73 | 1013.0 |
| 20260504024226 | 53 | 107 | 1.0 | 2.0 | 0.00 | 0.00 | 0.00 | 73 | 1013.1 |
| 20260504024126 | 53 | 107 | 1.0 | 2.0 | 0.00 | 0.00 | 0.00 | 73 | 1013.1 |
| 20260504024028 | 53 | 107 | 1.0 | 2.0 | 0.00 | 0.00 | 0.00 | 73 | 1013.1 |
| 20260504023924 | 53 | 107 | 1.0 | 2.0 | 0.00 | 0.00 | 0.00 | 73 | 1013.2 |
| 20260504023801 | 53 | 107 | 1.0 | 2.0 | 0.00 | 0.00 | 0.00 | 73 | 1013.2 |
| 20260504023723 | 53 | 107 | 1.0 | 2.0 | 0.00 | 0.00 | 0.00 | 73 | 1013.2 |
| 20260504023621 | 53 | 107 | 1.0 | 2.0 | 0.00 | 0.00 | 0.00 | 73 | 1013.2 |
| 20260504023520 | 53 | 107 | 1.0 | 2.0 | 0.00 | 0.00 | 0.00 | 73 | 1013.2 |
| 20260504023418 | 53 | 107 | 1.0 | 2.0 | 0.00 | 0.00 | 0.00 | 73 | 1013.2 |
| 20260504023301 | 52 | 107 | 1.0 | 2.0 | 0.00 | 0.00 | 0.00 | 73 | 1013.2 |
| 20260504023216 | 52 | 107 | 1.0 | 2.0 | 0.00 | 0.00 | 0.00 | 73 | 1013.3 |
| 20260504023114 | 52 | 107 | 1.0 | 2.0 | 0.00 | 0.00 | 0.00 | 73 | 1013.3 |
| 20260504023014 | 52 | 107 | 1.0 | 2.0 | 0.00 | 0.00 | 0.00 | 73 | 1013.3 |
| 20260504022912 | 52 | 107 | 1.0 | 2.0 | 0.00 | 0.00 | 0.00 | 73 | 1013.3 |
| 20260504022800 | 52 | 107 | 1.0 | 2.0 | 0.00 | 0.00 | 0.00 | 73 | 1013.2 |
| 20260504022709 | 52 | 107 | 1.0 | 2.0 | 0.00 | 0.00 | 0.00 | 74 | 1013.2 |
| 20260504022608 | 52 | 107 | 1.0 | 2.0 | 0.00 | 0.00 | 0.00 | 74 | 1013.3 |
| 20260504022512 | 52 | 107 | 1.0 | 2.0 | 0.00 | 0.00 | 0.00 | 74 | 1013.3 |
| 20260504022406 | 52 | 106 | 1.0 | 2.0 | 0.00 | 0.00 | 0.00 | 74 | 1013.3 |
| 20260504022301 | 52 | 106 | 1.0 | 2.0 | 0.00 | 0.00 | 0.00 | 74 | 1013.3 |
| 20260504022253 | 52 | 107 | 0.0 | 2.0 | 0.00 | 0.00 | 0.00 | 74 | 1013.2 |